Wetterdaten: Sonntag, 07.11.2021
Datum Zeit Temp. Aussen Temp. o. S. Temp +5cm Feuchte Auss Luftdruck Regen Sonnenschein Regendauer Solar Windben Empfang
07.11.2021 00:00 10,0 C 9,4 C 6,7 C 82 % 1020,6 hPa 0,0 l/m 0 min 0 min 0 W/m 25,7 km/h (4 Bft) 97,83 %
07.11.2021 00:02 10,0 C 9,4 C 6,7 C 82 % 1020,5 hPa 0,0 l/m 0 min 0 min 0 W/m 32,2 km/h (5 Bft) 93,33 %
07.11.2021 00:04 10,0 C 9,4 C 6,7 C 82 % 1020,5 hPa 0,0 l/m 0 min 0 min 0 W/m 45,1 km/h (6 Bft) 97,87 %
07.11.2021 00:08 10,0 C 9,4 C 6,7 C 82 % 1020,5 hPa 0,0 l/m 0 min 4 min 0 W/m 45,1 km/h (6 Bft) 100,00 %
07.11.2021 00:10 10,0 C 9,4 C 6,7 C 82 % 1020,3 hPa 0,0 l/m 0 min 0 min 0 W/m 29,0 km/h (5 Bft) 100,00 %
07.11.2021 00:12 10,0 C 9,4 C 6,7 C 82 % 1020,3 hPa 0,0 l/m 0 min 0 min 0 W/m 32,2 km/h (5 Bft) 100,00 %
07.11.2021 00:14 10,0 C 9,4 C 6,7 C 82 % 1020,3 hPa 0,0 l/m 0 min 0 min 0 W/m 32,2 km/h (5 Bft) 100,00 %
07.11.2021 00:16 10,0 C 9,4 C 6,7 C 82 % 1020,3 hPa 0,0 l/m 0 min 0 min 0 W/m 25,7 km/h (4 Bft) 100,00 %
07.11.2021 00:18 10,0 C 9,4 C 6,7 C 82 % 1020,2 hPa 0,0 l/m 0 min 0 min 0 W/m 25,7 km/h (4 Bft) 100,00 %
07.11.2021 00:20 10,0 C 9,4 C 6,7 C 82 % 1020,3 hPa 0,0 l/m 0 min 0 min 0 W/m 29,0 km/h (5 Bft) 100,00 %
07.11.2021 00:22 10,0 C 9,4 C 6,7 C 82 % 1020,3 hPa 0,0 l/m 0 min 0 min 0 W/m 29,0 km/h (5 Bft) 100,00 %
07.11.2021 00:24 10,0 C 9,4 C 6,7 C 82 % 1020,3 hPa 0,0 l/m 0 min 0 min 0 W/m 29,0 km/h (5 Bft) 100,00 %
07.11.2021 00:26 10,0 C 9,4 C 6,7 C 82 % 1020,1 hPa 0,0 l/m 0 min 0 min 0 W/m 38,6 km/h (5 Bft) 100,00 %
07.11.2021 00:28 10,0 C 9,4 C 6,7 C 82 % 1020,1 hPa 0,0 l/m 0 min 0 min 0 W/m 25,7 km/h (4 Bft) 100,00 %
07.11.2021 00:30 10,0 C 9,4 C 6,7 C 82 % 1020,1 hPa 0,0 l/m 0 min 0 min 0 W/m 29,0 km/h (5 Bft) 97,87 %
07.11.2021 00:32 10,0 C 9,4 C 6,7 C 83 % 1020,1 hPa 0,0 l/m 0 min 0 min 0 W/m 57,9 km/h (7 Bft) 95,74 %
07.11.2021 00:34 10,1 C 9,4 C 6,7 C 82 % 1020,0 hPa 0,0 l/m 0 min 0 min 0 W/m 22,5 km/h (4 Bft) 97,83 %
07.11.2021 00:36 10,1 C 9,4 C 6,7 C 83 % 1020,0 hPa 0,0 l/m 0 min 0 min 0 W/m 29,0 km/h (5 Bft) 97,87 %
07.11.2021 00:38 10,1 C 9,4 C 6,7 C 83 % 1019,9 hPa 0,0 l/m 0 min 0 min 0 W/m 22,5 km/h (4 Bft) 97,87 %
07.11.2021 00:40 10,1 C 9,4 C 6,7 C 83 % 1019,9 hPa 0,0 l/m 0 min 0 min 0 W/m 25,7 km/h (4 Bft) 95,74 %
07.11.2021 00:42 10,1 C 9,4 C 6,7 C 83 % 1019,9 hPa 0,0 l/m 0 min 0 min 0 W/m 32,2 km/h (5 Bft) 97,87 %
07.11.2021 00:44 10,1 C 9,4 C 6,7 C 83 % 1019,8 hPa 0,0 l/m 0 min 0 min 0 W/m 35,4 km/h (5 Bft) 97,87 %
07.11.2021 00:46 10,1 C 9,4 C 6,7 C 83 % 1019,7 hPa 0,0 l/m 0 min 0 min 0 W/m 16,1 km/h (3 Bft) 95,65 %
07.11.2021 00:48 10,1 C 9,4 C 6,7 C 83 % 1019,8 hPa 0,0 l/m 0 min 0 min 0 W/m 22,5 km/h (4 Bft) 97,87 %
07.11.2021 00:50 10,1 C 9,4 C 6,7 C 83 % 1019,8 hPa 0,0 l/m 0 min 0 min 0 W/m 22,5 km/h (4 Bft) 97,87 %
07.11.2021 00:52 10,1 C 9,4 C 6,7 C 83 % 1019,8 hPa 0,0 l/m 0 min 0 min 0 W/m 29,0 km/h (5 Bft) 97,87 %
07.11.2021 00:54 10,1 C 9,4 C 6,7 C 83 % 1019,7 hPa 0,0 l/m 0 min 0 min 0 W/m 41,8 km/h (6 Bft) 97,87 %
07.11.2021 00:56 10,1 C 9,4 C 6,7 C 83 % 1019,6 hPa 0,0 l/m 0 min 0 min 0 W/m 25,7 km/h (4 Bft) 97,87 %
07.11.2021 00:58 10,1 C 9,4 C 6,7 C 83 % 1019,7 hPa 0,0 l/m 0 min 0 min 0 W/m 51,5 km/h (7 Bft) 93,48 %
07.11.2021 01:00 10,1 C 9,4 C 6,7 C 83 % 1019,5 hPa 0,0 l/m 0 min 0 min 0 W/m 25,7 km/h (4 Bft) 95,74 %
07.11.2021 01:02 10,1 C 9,4 C 6,7 C 83 % 1019,5 hPa 0,0 l/m 0 min 0 min 0 W/m 35,4 km/h (5 Bft) 97,87 %
07.11.2021 01:04 10,1 C 9,4 C 6,7 C 83 % 1019,5 hPa 0,0 l/m 0 min 0 min 0 W/m 32,2 km/h (5 Bft) 97,62 %
07.11.2021 01:06 10,0 C 9,4 C 6,7 C 83 % 1019,5 hPa 0,0 l/m 0 min 0 min 0 W/m 29,0 km/h (5 Bft) 97,83 %
07.11.2021 01:08 10,0 C 9,4 C 6,7 C 83 % 1019,4 hPa 0,0 l/m 0 min 0 min 0 W/m 54,7 km/h (7 Bft) 97,87 %
07.11.2021 01:10 10,0 C 9,4 C 6,7 C 84 % 1019,4 hPa 0,0 l/m 0 min 2 min 0 W/m 41,8 km/h (6 Bft) 95,74 %
07.11.2021 01:12 9,9 C 8,9 C 6,1 C 84 % 1019,3 hPa 0,0 l/m 0 min 2 min 0 W/m 38,6 km/h (5 Bft) 97,87 %
07.11.2021 01:14 9,9 C 8,9 C 6,1 C 85 % 1019,4 hPa 0,0 l/m 0 min 2 min 0 W/m 19,3 km/h (3 Bft) 97,87 %
07.11.2021 01:16 9,8 C 8,9 C 6,1 C 85 % 1019,6 hPa 0,0 l/m 0 min 2 min 0 W/m 29,0 km/h (5 Bft) 93,62 %
07.11.2021 01:18 9,7 C 8,9 C 6,1 C 86 % 1019,4 hPa 0,0 l/m 0 min 2 min 0 W/m 25,7 km/h (4 Bft) 100,00 %
07.11.2021 01:20 9,6 C 8,9 C 6,1 C 86 % 1019,5 hPa 0,0 l/m 0 min 2 min 0 W/m 25,7 km/h (4 Bft) 97,87 %
07.11.2021 01:22 9,5 C 8,9 C 6,1 C 87 % 1019,5 hPa 0,0 l/m 0 min 2 min 0 W/m 22,5 km/h (4 Bft) 95,74 %
07.11.2021 01:24 9,5 C 8,9 C 6,1 C 87 % 1019,5 hPa 0,0 l/m 0 min 2 min 0 W/m 25,7 km/h (4 Bft) 95,74 %
07.11.2021 01:26 9,4 C 8,3 C 6,1 C 88 % 1019,3 hPa 0,0 l/m 0 min 2 min 0 W/m 25,7 km/h (4 Bft) 97,87 %
07.11.2021 01:28 9,4 C 8,3 C 6,1 C 88 % 1019,4 hPa 0,0 l/m 0 min 2 min 0 W/m 29,0 km/h (5 Bft) 97,87 %
07.11.2021 01:30 9,4 C 8,3 C 6,1 C 88 % 1019,3 hPa 0,0 l/m 0 min 0 min 0 W/m 32,2 km/h (5 Bft) 97,83 %
07.11.2021 01:32 9,3 C 8,3 C 6,1 C 88 % 1019,4 hPa 0,0 l/m 0 min 0 min 0 W/m 22,5 km/h (4 Bft) 95,74 %
07.11.2021 01:34 9,3 C 8,3 C 5,6 C 89 % 1019,2 hPa 0,0 l/m 0 min 0 min 0 W/m 38,6 km/h (5 Bft) 93,62 %
07.11.2021 01:36 9,3 C 8,3 C 5,6 C 89 % 1019,3 hPa 0,0 l/m 0 min 2 min 0 W/m 29,0 km/h (5 Bft) 95,74 %
07.11.2021 01:38 9,2 C 8,3 C 5,6 C 89 % 1019,3 hPa 0,0 l/m 0 min 2 min 0 W/m 32,2 km/h (5 Bft) 95,74 %
07.11.2021 01:40 9,1 C 8,3 C 5,6 C 89 % 1019,3 hPa 0,0 l/m 0 min 0 min 0 W/m 25,7 km/h (4 Bft) 93,48 %
07.11.2021 01:42 9,1 C 8,3 C 5,6 C 90 % 1019,2 hPa 0,0 l/m 0 min 0 min 0 W/m 35,4 km/h (5 Bft) 95,74 %
07.11.2021 01:44 9,1 C 8,3 C 5,6 C 90 % 1019,2 hPa 0,0 l/m 0 min 2 min 0 W/m 12,9 km/h (3 Bft) 95,74 %
07.11.2021 01:46 9,0 C 8,3 C 5,6 C 90 % 1019,2 hPa 0,0 l/m 0 min 2 min 0 W/m 16,1 km/h (3 Bft) 93,62 %
07.11.2021 01:48 9,0 C 8,3 C 5,6 C 90 % 1019,2 hPa 0,0 l/m 0 min 2 min 0 W/m 16,1 km/h (3 Bft) 95,74 %
07.11.2021 01:50 9,0 C 8,3 C 5,6 C 90 % 1019,1 hPa 0,0 l/m 0 min 2 min 0 W/m 12,9 km/h (3 Bft) 95,74 %
07.11.2021 01:52 9,0 C 8,3 C 5,6 C 91 % 1019,0 hPa 0,0 l/m 0 min 0 min 0 W/m 22,5 km/h (4 Bft) 95,65 %
07.11.2021 01:54 8,9 C 7,8 C 5,6 C 91 % 1019,1 hPa 0,0 l/m 0 min 2 min 0 W/m 32,2 km/h (5 Bft) 95,74 %
07.11.2021 01:56 8,9 C 7,8 C 5,6 C 91 % 1019,1 hPa 0,0 l/m 0 min 2 min 0 W/m 16,1 km/h (3 Bft) 95,74 %
07.11.2021 01:58 8,9 C 7,8 C 5,6 C 92 % 1019,0 hPa 0,0 l/m 0 min 0 min 0 W/m 12,9 km/h (3 Bft) 93,62 %
07.11.2021 02:00 8,8 C 8,3 C 5,6 C 92 % 1018,9 hPa 0,0 l/m 0 min 2 min 0 W/m 19,3 km/h (3 Bft) 95,74 %
07.11.2021 02:02 8,8 C 8,3 C 5,6 C 92 % 1019,0 hPa 0,0 l/m 0 min 2 min 0 W/m 19,3 km/h (3 Bft) 95,74 %
07.11.2021 02:04 8,8 C 8,3 C 5,6 C 92 % 1019,0 hPa 0,0 l/m 0 min 0 min 0 W/m 29,0 km/h (5 Bft) 97,87 %
07.11.2021 02:06 8,8 C 8,3 C 5,6 C 92 % 1018,8 hPa 0,0 l/m 0 min 0 min 0 W/m 25,7 km/h (4 Bft) 100,00 %
07.11.2021 02:08 8,8 C 8,3 C 5,6 C 92 % 1018,8 hPa 0,0 l/m 0 min 0 min 0 W/m 19,3 km/h (3 Bft) 100,00 %
07.11.2021 02:10 8,8 C 8,3 C 5,6 C 92 % 1018,6 hPa 0,0 l/m 0 min 0 min 0 W/m 29,0 km/h (5 Bft) 100,00 %
07.11.2021 02:12 8,8 C 8,3 C 5,6 C 92 % 1018,8 hPa 0,0 l/m 0 min 0 min 0 W/m 32,2 km/h (5 Bft) 100,00 %
07.11.2021 02:14 8,8 C 8,3 C 5,6 C 92 % 1018,7 hPa 0,0 l/m 0 min 0 min 0 W/m 25,7 km/h (4 Bft) 100,00 %
07.11.2021 02:16 8,8 C 8,3 C 5,6 C 93 % 1018,7 hPa 0,0 l/m 0 min 0 min 0 W/m 29,0 km/h (5 Bft) 100,00 %
07.11.2021 02:18 8,8 C 8,3 C 5,6 C 93 % 1018,8 hPa 0,0 l/m 0 min 0 min 0 W/m 25,7 km/h (4 Bft) 100,00 %
07.11.2021 02:20 8,8 C 8,3 C 5,6 C 93 % 1018,8 hPa 0,0 l/m 0 min 0 min 0 W/m 19,3 km/h (3 Bft) 100,00 %
07.11.2021 02:22 8,9 C 8,3 C 5,6 C 93 % 1018,8 hPa 0,0 l/m 0 min 0 min 0 W/m 16,1 km/h (3 Bft) 100,00 %
07.11.2021 02:24 8,9 C 8,3 C 5,6 C 93 % 1018,9 hPa 0,0 l/m 0 min 0 min 0 W/m 19,3 km/h (3 Bft) 100,00 %
07.11.2021 02:26 8,9 C 8,3 C 5,6 C 93 % 1018,6 hPa 0,0 l/m 0 min 2 min 0 W/m 29,0 km/h (5 Bft) 100,00 %
07.11.2021 02:28 8,9 C 8,3 C 5,6 C 93 % 1018,6 hPa 0,0 l/m 0 min 2 min 0 W/m 38,6 km/h (5 Bft) 100,00 %
07.11.2021 02:30 8,9 C 8,3 C 5,6 C 93 % 1018,6 hPa 0,0 l/m 0 min 2 min 0 W/m 25,7 km/h (4 Bft) 100,00 %
07.11.2021 02:32 8,9 C 8,3 C 5,6 C 93 % 1018,8 hPa 0,0 l/m 0 min 2 min 0 W/m 19,3 km/h (3 Bft) 100,00 %
07.11.2021 02:34 8,9 C 8,3 C 5,6 C 93 % 1018,8 hPa 0,0 l/m 0 min 2 min 0 W/m 22,5 km/h (4 Bft) 100,00 %
07.11.2021 02:36 8,9 C 8,3 C 5,6 C 93 % 1018,8 hPa 0,0 l/m 0 min 2 min 0 W/m 25,7 km/h (4 Bft) 100,00 %
07.11.2021 02:38 8,9 C 8,3 C 5,6 C 93 % 1018,8 hPa 0,0 l/m 0 min 2 min 0 W/m 35,4 km/h (5 Bft) 100,00 %
07.11.2021 02:40 8,9 C 8,3 C 5,6 C 93 % 1018,7 hPa 0,0 l/m 0 min 2 min 0 W/m 29,0 km/h (5 Bft) 100,00 %
07.11.2021 02:42 8,9 C 8,3 C 5,6 C 93 % 1018,7 hPa 0,0 l/m 0 min 2 min 0 W/m 19,3 km/h (3 Bft) 100,00 %
07.11.2021 02:44 8,9 C 8,3 C 5,6 C 93 % 1018,7 hPa 0,0 l/m 0 min 2 min 0 W/m 22,5 km/h (4 Bft) 100,00 %
07.11.2021 02:46 8,9 C 8,3 C 5,6 C 93 % 1018,7 hPa 0,0 l/m 0 min 2 min 0 W/m 19,3 km/h (3 Bft) 100,00 %
07.11.2021 02:48 8,9 C 8,3 C 5,6 C 93 % 1018,7 hPa 0,0 l/m 0 min 2 min 0 W/m 25,7 km/h (4 Bft) 97,87 %
07.11.2021 02:50 8,9 C 8,3 C 5,6 C 93 % 1018,7 hPa 0,0 l/m 0 min 2 min 0 W/m 22,5 km/h (4 Bft) 100,00 %
07.11.2021 02:52 8,9 C 7,8 C 5,6 C 94 % 1018,7 hPa 0,0 l/m 0 min 2 min 0 W/m 19,3 km/h (3 Bft) 100,00 %
07.11.2021 02:54 8,9 C 7,8 C 5,6 C 94 % 1018,7 hPa 0,0 l/m 0 min 2 min 0 W/m 25,7 km/h (4 Bft) 97,87 %
07.11.2021 02:56 8,8 C 7,8 C 5,6 C 94 % 1018,6 hPa 0,0 l/m 0 min 2 min 0 W/m 22,5 km/h (4 Bft) 100,00 %
07.11.2021 02:58 8,8 C 7,8 C 5,6 C 94 % 1018,7 hPa 0,0 l/m 0 min 2 min 0 W/m 35,4 km/h (5 Bft) 100,00 %
07.11.2021 03:00 8,8 C 8,3 C 5,6 C 94 % 1018,6 hPa 0,0 l/m 0 min 2 min 0 W/m 29,0 km/h (5 Bft) 100,00 %
07.11.2021 03:02 8,8 C 7,8 C 5,6 C 94 % 1018,5 hPa 0,0 l/m 0 min 2 min 0 W/m 35,4 km/h (5 Bft) 100,00 %
07.11.2021 03:04 8,8 C 7,8 C 5,6 C 94 % 1018,5 hPa 0,0 l/m 0 min 2 min 0 W/m 22,5 km/h (4 Bft) 100,00 %
07.11.2021 03:06 8,8 C 7,8 C 5,6 C 94 % 1018,5 hPa 0,0 l/m 0 min 2 min 0 W/m 16,1 km/h (3 Bft) 100,00 %
07.11.2021 03:08 8,8 C 7,8 C 5,6 C 94 % 1018,5 hPa 0,0 l/m 0 min 2 min 0 W/m 12,9 km/h (3 Bft) 97,87 %
07.11.2021 03:10 8,8 C 7,8 C 5,6 C 94 % 1018,4 hPa 0,0 l/m 0 min 2 min 0 W/m 19,3 km/h (3 Bft) 100,00 %
07.11.2021 03:12 8,8 C 7,8 C 5,6 C 94 % 1018,4 hPa 0,0 l/m 0 min 2 min 0 W/m 19,3 km/h (3 Bft) 100,00 %
07.11.2021 03:14 8,8 C 7,8 C 5,6 C 95 % 1018,2 hPa 0,0 l/m 0 min 2 min 0 W/m 29,0 km/h (5 Bft) 100,00 %
07.11.2021 03:16 8,8 C 7,8 C 5,6 C 95 % 1018,3 hPa 0,0 l/m 0 min 2 min 0 W/m 12,9 km/h (3 Bft) 97,87 %
07.11.2021 03:18 8,8 C 7,8 C 5,6 C 95 % 1018,3 hPa 0,0 l/m 0 min 2 min 0 W/m 19,3 km/h (3 Bft) 100,00 %
07.11.2021 03:20 8,8 C 7,8 C 5,6 C 95 % 1018,1 hPa 0,0 l/m 0 min 2 min 0 W/m 22,5 km/h (4 Bft) 100,00 %
07.11.2021 03:22 8,8 C 8,3 C 5,6 C 95 % 1018,0 hPa 0,0 l/m 0 min 2 min 0 W/m 25,7 km/h (4 Bft) 63,83 %
07.11.2021 03:24 8,8 C 8,3 C 5,6 C 95 % 1018,4 hPa 0,0 l/m 0 min 2 min 0 W/m 25,7 km/h (4 Bft) 88,89 %
07.11.2021 03:26 8,8 C 8,3 C 5,6 C 95 % 1018,0 hPa 0,0 l/m 0 min 2 min 0 W/m 45,1 km/h (6 Bft) 95,74 %
07.11.2021 03:28 8,8 C 8,3 C 5,6 C 95 % 1018,0 hPa 0,0 l/m 0 min 2 min 0 W/m 19,3 km/h (3 Bft) 93,62 %
07.11.2021 03:30 8,8 C 8,3 C 5,6 C 95 % 1017,9 hPa 0,0 l/m 0 min 2 min 0 W/m 25,7 km/h (4 Bft) 95,65 %
07.11.2021 03:32 8,8 C 8,3 C 5,6 C 95 % 1017,9 hPa 0,0 l/m 0 min 2 min 0 W/m 22,5 km/h (4 Bft) 95,74 %
07.11.2021 03:34 8,8 C 8,3 C 5,6 C 95 % 1017,9 hPa 0,0 l/m 0 min 2 min 0 W/m 25,7 km/h (4 Bft) 95,74 %
07.11.2021 03:36 8,8 C 8,3 C 5,6 C 95 % 1017,7 hPa 0,0 l/m 0 min 2 min 0 W/m 12,9 km/h (3 Bft) 95,74 %
07.11.2021 03:38 8,8 C 7,8 C 5,6 C 95 % 1017,8 hPa 0,0 l/m 0 min 2 min 0 W/m 22,5 km/h (4 Bft) 93,62 %
07.11.2021 03:40 8,8 C 8,3 C 5,6 C 95 % 1017,8 hPa 0,0 l/m 0 min 2 min 0 W/m 16,1 km/h (3 Bft) 93,62 %
07.11.2021 03:42 8,8 C 8,3 C 5,6 C 95 % 1017,8 hPa 0,0 l/m 0 min 0 min 0 W/m 16,1 km/h (3 Bft) 95,65 %
07.11.2021 03:44 8,8 C 8,3 C 5,6 C 95 % 1017,8 hPa 0,0 l/m 0 min 0 min 0 W/m 35,4 km/h (5 Bft) 91,49 %
07.11.2021 03:46 8,8 C 8,3 C 5,6 C 95 % 1017,9 hPa 0,0 l/m 0 min 0 min 0 W/m 22,5 km/h (4 Bft) 95,74 %
07.11.2021 03:48 8,8 C 8,3 C 5,6 C 95 % 1017,8 hPa 0,0 l/m 0 min 0 min 0 W/m 16,1 km/h (3 Bft) 93,62 %
07.11.2021 03:50 8,8 C 8,3 C 5,6 C 95 % 1018,0 hPa 0,0 l/m 0 min 0 min 0 W/m 19,3 km/h (3 Bft) 95,74 %
07.11.2021 03:52 8,8 C 8,3 C 5,6 C 95 % 1017,6 hPa 0,0 l/m 0 min 0 min 0 W/m 16,1 km/h (3 Bft) 95,65 %
07.11.2021 03:54 8,8 C 8,3 C 6,1 C 95 % 1017,7 hPa 0,0 l/m 0 min 0 min 0 W/m 16,1 km/h (3 Bft) 93,62 %
07.11.2021 03:56 8,8 C 8,3 C 6,1 C 95 % 1017,6 hPa 0,0 l/m 0 min 0 min 0 W/m 22,5 km/h (4 Bft) 91,49 %
07.11.2021 03:58 8,8 C 8,3 C 6,1 C 95 % 1017,7 hPa 0,0 l/m 0 min 0 min 0 W/m 22,5 km/h (4 Bft) 95,74 %
07.11.2021 04:00 8,8 C 8,3 C 6,1 C 95 % 1017,6 hPa 0,0 l/m 0 min 0 min 0 W/m 16,1 km/h (3 Bft) 93,62 %
07.11.2021 04:02 8,8 C 8,3 C 6,1 C 95 % 1017,5 hPa 0,0 l/m 0 min 0 min 0 W/m 12,9 km/h (3 Bft) 100,00 %
07.11.2021 04:04 8,8 C 8,3 C 6,1 C 95 % 1017,6 hPa 0,0 l/m 0 min 0 min 0 W/m 16,1 km/h (3 Bft) 93,48 %
07.11.2021 04:06 8,8 C 8,3 C 6,1 C 95 % 1017,5 hPa 0,0 l/m 0 min 0 min 0 W/m 16,1 km/h (3 Bft) 95,74 %
07.11.2021 04:08 8,8 C 8,3 C 6,1 C 95 % 1017,3 hPa 0,0 l/m 0 min 0 min 0 W/m 29,0 km/h (5 Bft) 93,62 %
07.11.2021 04:10 8,8 C 8,3 C 6,1 C 95 % 1017,4 hPa 0,0 l/m 0 min 0 min 0 W/m 19,3 km/h (3 Bft) 94,92 %
07.11.2021 04:12 8,8 C 8,3 C 6,1 C 95 % 1017,3 hPa 0,0 l/m 0 min 0 min 0 W/m 25,7 km/h (4 Bft) 95,74 %
07.11.2021 04:14 8,8 C 8,3 C 6,1 C 95 % 1017,4 hPa 0,0 l/m 0 min 0 min 0 W/m 25,7 km/h (4 Bft) 95,65 %
07.11.2021 04:16 8,9 C 8,3 C 6,1 C 95 % 1017,4 hPa 0,0 l/m 0 min 0 min 0 W/m 16,1 km/h (3 Bft) 95,74 %
07.11.2021 04:18 8,9 C 8,3 C 6,1 C 95 % 1017,4 hPa 0,0 l/m 0 min 0 min 0 W/m 19,3 km/h (3 Bft) 97,87 %
07.11.2021 04:20 8,9 C 8,3 C 6,1 C 95 % 1017,3 hPa 0,0 l/m 0 min 0 min 0 W/m 19,3 km/h (3 Bft) 97,87 %
07.11.2021 04:22 8,9 C 8,3 C 6,1 C 95 % 1017,2 hPa 0,0 l/m 0 min 0 min 0 W/m 25,7 km/h (4 Bft) 93,62 %
07.11.2021 04:24 8,9 C 8,3 C 6,1 C 95 % 1017,2 hPa 0,0 l/m 0 min 0 min 0 W/m 16,1 km/h (3 Bft) 93,62 %
07.11.2021 04:26 8,9 C 8,3 C 6,1 C 95 % 1017,3 hPa 0,0 l/m 0 min 0 min 0 W/m 22,5 km/h (4 Bft) 97,83 %
07.11.2021 04:28 8,9 C 8,3 C 6,1 C 95 % 1017,3 hPa 0,0 l/m 0 min 0 min 0 W/m 29,0 km/h (5 Bft) 97,87 %
07.11.2021 04:30 8,9 C 8,3 C 6,1 C 95 % 1017,2 hPa 0,0 l/m 0 min 0 min 0 W/m 25,7 km/h (4 Bft) 97,87 %
07.11.2021 04:32 8,9 C 8,3 C 6,1 C 95 % 1017,3 hPa 0,0 l/m 0 min 0 min 0 W/m 32,2 km/h (5 Bft) 94,29 %
07.11.2021 04:34 8,9 C 8,3 C 6,1 C 95 % 1017,1 hPa 0,0 l/m 0 min 0 min 0 W/m 29,0 km/h (5 Bft) 97,87 %
07.11.2021 04:36 9,0 C 8,3 C 6,1 C 96 % 1017,0 hPa 0,0 l/m 0 min 0 min 0 W/m 19,3 km/h (3 Bft) 97,87 %
07.11.2021 04:38 9,0 C 8,3 C 6,1 C 96 % 1017,0 hPa 0,0 l/m 0 min 0 min 0 W/m 32,2 km/h (5 Bft) 100,00 %
07.11.2021 04:40 9,0 C 8,3 C 6,1 C 95 % 1017,0 hPa 0,0 l/m 0 min 0 min 0 W/m 25,7 km/h (4 Bft) 100,00 %
07.11.2021 04:42 9,0 C 8,3 C 6,1 C 95 % 1017,0 hPa 0,0 l/m 0 min 0 min 0 W/m 12,9 km/h (3 Bft) 100,00 %
07.11.2021 04:44 9,0 C 8,3 C 6,7 C 95 % 1017,0 hPa 0,0 l/m 0 min 0 min 0 W/m 22,5 km/h (4 Bft) 100,00 %
07.11.2021 04:46 9,0 C 8,3 C 6,7 C 95 % 1016,9 hPa 0,0 l/m 0 min 0 min 0 W/m 19,3 km/h (3 Bft) 100,00 %
07.11.2021 04:48 9,0 C 8,3 C 6,7 C 95 % 1016,9 hPa 0,0 l/m 0 min 0 min 0 W/m 22,5 km/h (4 Bft) 100,00 %
07.11.2021 04:50 9,0 C 8,3 C 6,7 C 95 % 1016,9 hPa 0,0 l/m 0 min 0 min 0 W/m 19,3 km/h (3 Bft) 100,00 %
07.11.2021 04:52 9,0 C 8,3 C 6,7 C 95 % 1016,9 hPa 0,0 l/m 0 min 0 min 0 W/m 19,3 km/h (3 Bft) 100,00 %
07.11.2021 04:54 9,0 C 8,3 C 6,7 C 95 % 1016,9 hPa 0,0 l/m 0 min 0 min 0 W/m 22,5 km/h (4 Bft) 97,87 %
07.11.2021 04:56 9,0 C 8,3 C 6,7 C 95 % 1017,2 hPa 0,0 l/m 0 min 0 min 0 W/m 41,8 km/h (6 Bft) 100,00 %
07.11.2021 04:58 9,1 C 8,3 C 6,7 C 95 % 1017,0 hPa 0,0 l/m 0 min 0 min 0 W/m 29,0 km/h (5 Bft) 100,00 %
07.11.2021 05:00 9,1 C 8,3 C 6,7 C 95 % 1016,9 hPa 0,0 l/m 0 min 0 min 0 W/m 19,3 km/h (3 Bft) 57,45 %
07.11.2021 05:02 9,1 C 8,3 C 6,7 C 95 % 1016,8 hPa 0,0 l/m 0 min 0 min 0 W/m 22,5 km/h (4 Bft) 100,00 %
07.11.2021 05:04 9,1 C 8,3 C 6,7 C 95 % 1016,9 hPa 0,0 l/m 0 min 0 min 0 W/m 12,9 km/h (3 Bft) 100,00 %
07.11.2021 05:06 9,1 C 8,3 C 6,7 C 95 % 1016,8 hPa 0,0 l/m 0 min 0 min 0 W/m 9,7 km/h (2 Bft) 100,00 %
07.11.2021 05:08 9,1 C 8,3 C 6,7 C 95 % 1016,8 hPa 0,0 l/m 0 min 0 min 0 W/m 29,0 km/h (5 Bft) 97,87 %
07.11.2021 05:10 9,1 C 8,3 C 6,7 C 95 % 1016,8 hPa 0,0 l/m 0 min 0 min 0 W/m 9,7 km/h (2 Bft) 100,00 %
07.11.2021 05:12 9,1 C 8,3 C 6,7 C 95 % 1016,6 hPa 0,0 l/m 0 min 0 min 0 W/m 16,1 km/h (3 Bft) 100,00 %
07.11.2021 05:14 9,1 C 8,3 C 6,7 C 95 % 1016,6 hPa 0,0 l/m 0 min 0 min 0 W/m 12,9 km/h (3 Bft) 100,00 %
07.11.2021 05:16 9,1 C 8,3 C 6,7 C 95 % 1016,6 hPa 0,0 l/m 0 min 0 min 0 W/m 12,9 km/h (3 Bft) 100,00 %
07.11.2021 05:18 9,1 C 8,3 C 6,7 C 95 % 1016,7 hPa 0,0 l/m 0 min 0 min 0 W/m 12,9 km/h (3 Bft) 97,87 %
07.11.2021 05:20 9,1 C 8,3 C 6,7 C 95 % 1016,7 hPa 0,0 l/m 0 min 0 min 0 W/m 12,9 km/h (3 Bft) 97,87 %
07.11.2021 05:22 9,1 C 8,3 C 6,7 C 95 % 1016,7 hPa 0,0 l/m 0 min 0 min 0 W/m 16,1 km/h (3 Bft) 95,74 %
07.11.2021 05:24 9,1 C 8,3 C 6,7 C 95 % 1016,6 hPa 0,0 l/m 0 min 0 min 0 W/m 12,9 km/h (3 Bft) 97,87 %
07.11.2021 05:26 9,1 C 8,3 C 6,7 C 95 % 1016,6 hPa 0,0 l/m 0 min 0 min 0 W/m 9,7 km/h (2 Bft) 95,74 %
07.11.2021 05:28 9,2 C 8,9 C 6,7 C 95 % 1016,6 hPa 0,0 l/m 0 min 0 min 0 W/m 22,5 km/h (4 Bft) 97,83 %
07.11.2021 05:30 9,2 C 8,9 C 6,7 C 95 % 1016,6 hPa 0,0 l/m 0 min 0 min 0 W/m 22,5 km/h (4 Bft) 97,87 %
07.11.2021 05:32 9,2 C 8,9 C 6,7 C 95 % 1016,5 hPa 0,0 l/m 0 min 0 min 0 W/m 19,3 km/h (3 Bft) 97,87 %
07.11.2021 05:34 9,3 C 8,9 C 6,7 C 95 % 1016,4 hPa 0,0 l/m 0 min 0 min 0 W/m 19,3 km/h (3 Bft) 95,74 %
07.11.2021 05:36 9,3 C 8,9 C 6,7 C 95 % 1016,4 hPa 0,0 l/m 0 min 0 min 0 W/m 16,1 km/h (3 Bft) 95,74 %
07.11.2021 05:38 9,3 C 8,9 C 6,7 C 95 % 1016,4 hPa 0,0 l/m 0 min 0 min 0 W/m 16,1 km/h (3 Bft) 97,87 %
07.11.2021 05:40 9,3 C 8,9 C 6,7 C 95 % 1016,5 hPa 0,0 l/m 0 min 0 min 0 W/m 19,3 km/h (3 Bft) 97,83 %
07.11.2021 05:42 9,3 C 8,9 C 6,7 C 95 % 1016,4 hPa 0,0 l/m 0 min 0 min 0 W/m 22,5 km/h (4 Bft) 100,00 %
07.11.2021 05:44 9,3 C 8,9 C 6,7 C 95 % 1016,5 hPa 0,0 l/m 0 min 0 min 0 W/m 16,1 km/h (3 Bft) 97,87 %
07.11.2021 05:46 9,3 C 8,9 C 6,7 C 95 % 1016,4 hPa 0,0 l/m 0 min 0 min 0 W/m 12,9 km/h (3 Bft) 97,87 %
07.11.2021 05:48 9,3 C 8,9 C 6,7 C 95 % 1016,4 hPa 0,0 l/m 0 min 0 min 0 W/m 22,5 km/h (4 Bft) 97,87 %
07.11.2021 05:50 9,3 C 8,9 C 7,2 C 95 % 1016,2 hPa 0,0 l/m 0 min 0 min 0 W/m 22,5 km/h (4 Bft) 100,00 %
07.11.2021 05:52 9,3 C 8,9 C 7,2 C 95 % 1016,3 hPa 0,0 l/m 0 min 0 min 0 W/m 19,3 km/h (3 Bft) 100,00 %
07.11.2021 05:54 9,4 C 8,9 C 7,2 C 95 % 1016,3 hPa 0,0 l/m 0 min 0 min 0 W/m 35,4 km/h (5 Bft) 100,00 %
07.11.2021 05:56 9,4 C 8,9 C 7,2 C 95 % 1016,2 hPa 0,0 l/m 0 min 0 min 0 W/m 35,4 km/h (5 Bft) 100,00 %
07.11.2021 05:58 9,4 C 8,9 C 7,2 C 95 % 1016,1 hPa 0,0 l/m 0 min 0 min 0 W/m 19,3 km/h (3 Bft) 95,74 %
07.11.2021 06:00 9,4 C 8,9 C 7,2 C 95 % 1016,1 hPa 0,0 l/m 0 min 0 min 0 W/m 32,2 km/h (5 Bft) 100,00 %
07.11.2021 06:02 9,4 C 8,9 C 7,2 C 95 % 1016,2 hPa 0,0 l/m 0 min 0 min 0 W/m 35,4 km/h (5 Bft) 97,83 %
07.11.2021 06:04 9,4 C 8,9 C 7,2 C 95 % 1016,2 hPa 0,0 l/m 0 min 0 min 0 W/m 32,2 km/h (5 Bft) 100,00 %
07.11.2021 06:08 9,4 C 8,9 C 7,2 C 95 % 1016,2 hPa 0,0 l/m 0 min 0 min 0 W/m 29,0 km/h (5 Bft) 100,00 %
07.11.2021 06:10 9,4 C 8,9 C 7,2 C 95 % 1016,3 hPa 0,0 l/m 0 min 0 min 0 W/m 16,1 km/h (3 Bft) 100,00 %
07.11.2021 06:12 9,4 C 8,9 C 7,2 C 95 % 1016,3 hPa 0,0 l/m 0 min 0 min 0 W/m 19,3 km/h (3 Bft) 100,00 %
07.11.2021 06:14 9,4 C 8,9 C 7,2 C 95 % 1016,3 hPa 0,0 l/m 0 min 0 min 0 W/m 22,5 km/h (4 Bft) 100,00 %
07.11.2021 06:16 9,4 C 8,9 C 7,2 C 95 % 1016,2 hPa 0,0 l/m 0 min 0 min 0 W/m 22,5 km/h (4 Bft) 97,87 %
07.11.2021 06:18 9,4 C 8,9 C 7,2 C 95 % 1016,1 hPa 0,0 l/m 0 min 0 min 0 W/m 16,1 km/h (3 Bft) 100,00 %
07.11.2021 06:20 9,5 C 8,9 C 7,2 C 95 % 1016,1 hPa 0,0 l/m 0 min 0 min 0 W/m 25,7 km/h (4 Bft) 97,87 %
07.11.2021 06:22 9,5 C 8,9 C 7,2 C 95 % 1015,9 hPa 0,0 l/m 0 min 0 min 0 W/m 22,5 km/h (4 Bft) 100,00 %
07.11.2021 06:24 9,5 C 8,9 C 7,2 C 95 % 1016,0 hPa 0,0 l/m 0 min 0 min 0 W/m 19,3 km/h (3 Bft) 95,74 %
07.11.2021 06:26 9,5 C 8,9 C 7,2 C 95 % 1015,9 hPa 0,0 l/m 0 min 0 min 0 W/m 29,0 km/h (5 Bft) 97,83 %
07.11.2021 06:28 9,5 C 8,9 C 7,2 C 95 % 1016,0 hPa 0,0 l/m 0 min 0 min 0 W/m 16,1 km/h (3 Bft) 95,74 %
07.11.2021 06:30 9,5 C 8,9 C 7,2 C 95 % 1015,9 hPa 0,0 l/m 0 min 0 min 0 W/m 19,3 km/h (3 Bft) 95,74 %
07.11.2021 06:32 9,5 C 8,9 C 7,2 C 95 % 1015,8 hPa 0,0 l/m 0 min 0 min 0 W/m 35,4 km/h (5 Bft) 93,62 %
07.11.2021 06:34 9,5 C 8,9 C 7,2 C 95 % 1015,7 hPa 0,0 l/m 0 min 0 min 0 W/m 19,3 km/h (3 Bft) 93,62 %
07.11.2021 06:36 9,5 C 8,9 C 7,2 C 95 % 1015,9 hPa 0,0 l/m 0 min 0 min 0 W/m 12,9 km/h (3 Bft) 95,74 %
07.11.2021 06:38 9,5 C 8,9 C 7,2 C 95 % 1016,1 hPa 0,0 l/m 0 min 0 min 0 W/m 19,3 km/h (3 Bft) 94,64 %
07.11.2021 06:40 9,5 C 8,9 C 7,2 C 95 % 1016,1 hPa 0,0 l/m 0 min 0 min 0 W/m 25,7 km/h (4 Bft) 93,62 %
07.11.2021 06:42 9,5 C 8,9 C 7,2 C 95 % 1015,9 hPa 0,0 l/m 0 min 0 min 0 W/m 16,1 km/h (3 Bft) 95,65 %
07.11.2021 06:44 9,5 C 8,9 C 7,2 C 95 % 1015,9 hPa 0,0 l/m 0 min 0 min 0 W/m 19,3 km/h (3 Bft) 95,74 %
07.11.2021 06:46 9,5 C 8,9 C 7,2 C 95 % 1015,9 hPa 0,0 l/m 0 min 0 min 0 W/m 12,9 km/h (3 Bft) 93,62 %
07.11.2021 06:48 9,6 C 8,9 C 7,2 C 95 % 1015,9 hPa 0,0 l/m 0 min 0 min 0 W/m 16,1 km/h (3 Bft) 95,74 %
07.11.2021 06:50 9,5 C 8,9 C 7,2 C 95 % 1015,8 hPa 0,0 l/m 0 min 0 min 0 W/m 16,1 km/h (3 Bft) 95,74 %
07.11.2021 06:52 9,6 C 8,9 C 7,2 C 95 % 1015,8 hPa 0,0 l/m 0 min 0 min 0 W/m 16,1 km/h (3 Bft) 95,74 %
07.11.2021 06:54 9,6 C 8,9 C 7,2 C 95 % 1015,8 hPa 0,0 l/m 0 min 0 min 0 W/m 19,3 km/h (3 Bft) 97,83 %
07.11.2021 06:56 9,6 C 8,9 C 7,2 C 95 % 1015,9 hPa 0,0 l/m 0 min 0 min 0 W/m 12,9 km/h (3 Bft) 95,74 %
07.11.2021 06:58 9,6 C 8,9 C 7,2 C 95 % 1015,8 hPa 0,0 l/m 0 min 0 min 0 W/m 19,3 km/h (3 Bft) 95,74 %
07.11.2021 07:00 9,6 C 8,9 C 7,2 C 95 % 1015,8 hPa 0,0 l/m 0 min 0 min 0 W/m 29,0 km/h (5 Bft) 93,62 %
07.11.2021 07:02 9,6 C 8,9 C 7,2 C 95 % 1015,7 hPa 0,0 l/m 0 min 0 min 0 W/m 19,3 km/h (3 Bft) 95,74 %
07.11.2021 07:04 9,6 C 8,9 C 7,2 C 95 % 1015,8 hPa 0,0 l/m 0 min 0 min 0 W/m 25,7 km/h (4 Bft) 93,62 %
07.11.2021 07:06 9,6 C 8,9 C 7,2 C 95 % 1015,8 hPa 0,0 l/m 0 min 0 min 0 W/m 16,1 km/h (3 Bft) 95,65 %
07.11.2021 07:08 9,6 C 8,9 C 7,2 C 95 % 1015,9 hPa 0,0 l/m 0 min 0 min 0 W/m 12,9 km/h (3 Bft) 95,74 %
07.11.2021 07:10 9,6 C 8,9 C 7,2 C 95 % 1015,9 hPa 0,0 l/m 0 min 0 min 0 W/m 22,5 km/h (4 Bft) 93,62 %
07.11.2021 07:12 9,7 C 9,4 C 7,2 C 95 % 1016,0 hPa 0,0 l/m 0 min 0 min 0 W/m 25,7 km/h (4 Bft) 97,87 %
07.11.2021 07:14 9,7 C 9,4 C 7,2 C 95 % 1016,1 hPa 0,0 l/m 0 min 0 min 0 W/m 16,1 km/h (3 Bft) 95,74 %
07.11.2021 07:16 9,7 C 9,4 C 7,2 C 95 % 1016,1 hPa 0,0 l/m 0 min 2 min 0 W/m 12,9 km/h (3 Bft) 97,87 %
07.11.2021 07:18 9,8 C 9,4 C 7,2 C 95 % 1016,0 hPa 0,0 l/m 0 min 2 min 0 W/m 12,9 km/h (3 Bft) 97,83 %
07.11.2021 07:20 9,8 C 8,9 C 7,2 C 95 % 1016,1 hPa 0,0 l/m 0 min 2 min 0 W/m 19,3 km/h (3 Bft) 97,87 %
07.11.2021 07:22 9,8 C 8,9 C 7,2 C 95 % 1016,2 hPa 0,0 l/m 0 min 2 min 0 W/m 22,5 km/h (4 Bft) 95,74 %
07.11.2021 07:24 9,8 C 8,9 C 7,2 C 95 % 1016,1 hPa 0,0 l/m 0 min 2 min 0 W/m 22,5 km/h (4 Bft) 97,87 %
07.11.2021 07:26 9,8 C 8,9 C 7,2 C 95 % 1016,1 hPa 0,0 l/m 0 min 2 min 0 W/m 25,7 km/h (4 Bft) 97,87 %
07.11.2021 07:28 9,8 C 8,9 C 7,2 C 95 % 1016,1 hPa 0,0 l/m 0 min 2 min 0 W/m 16,1 km/h (3 Bft) 97,87 %
07.11.2021 07:30 9,8 C 8,9 C 7,2 C 95 % 1016,2 hPa 0,0 l/m 0 min 0 min 0 W/m 16,1 km/h (3 Bft) 97,83 %
07.11.2021 07:32 9,7 C 8,9 C 7,2 C 95 % 1016,1 hPa 0,0 l/m 0 min 0 min 0 W/m 16,1 km/h (3 Bft) 95,74 %
07.11.2021 07:34 9,8 C 8,9 C 7,2 C 95 % 1016,2 hPa 0,2 l/m 0 min 0 min 0 W/m 25,7 km/h (4 Bft) 97,87 %
07.11.2021 07:36 9,8 C 8,9 C 7,2 C 95 % 1016,1 hPa 0,0 l/m 0 min 0 min 0 W/m 9,7 km/h (2 Bft) 97,87 %
07.11.2021 07:38 9,7 C 8,9 C 7,2 C 95 % 1016,0 hPa 0,0 l/m 0 min 0 min 0 W/m 12,9 km/h (3 Bft) 95,74 %
07.11.2021 07:40 9,7 C 8,9 C 7,2 C 95 % 1016,1 hPa 0,0 l/m 0 min 0 min 0 W/m 16,1 km/h (3 Bft) 97,87 %
07.11.2021 07:42 9,7 C 8,9 C 7,2 C 95 % 1016,0 hPa 0,0 l/m 0 min 0 min 0 W/m 19,3 km/h (3 Bft) 93,48 %
07.11.2021 07:44 9,7 C 8,9 C 7,2 C 95 % 1016,0 hPa 0,0 l/m 0 min 0 min 4 W/m 9,7 km/h (2 Bft) 97,87 %
07.11.2021 07:46 9,7 C 8,9 C 7,2 C 95 % 1016,1 hPa 0,0 l/m 0 min 0 min 6 W/m 19,3 km/h (3 Bft) 100,00 %
07.11.2021 07:48 9,7 C 8,9 C 7,2 C 95 % 1016,2 hPa 0,0 l/m 0 min 0 min 6 W/m 12,9 km/h (3 Bft) 100,00 %
07.11.2021 07:50 9,7 C 8,9 C 7,2 C 95 % 1016,1 hPa 0,0 l/m 0 min 0 min 8 W/m 12,9 km/h (3 Bft) 100,00 %
07.11.2021 07:52 9,7 C 8,9 C 7,2 C 95 % 1016,2 hPa 0,0 l/m 0 min 0 min 9 W/m 12,9 km/h (3 Bft) 100,00 %
07.11.2021 07:54 9,7 C 8,9 C 7,2 C 95 % 1016,2 hPa 0,0 l/m 0 min 0 min 11 W/m 16,1 km/h (3 Bft) 100,00 %
07.11.2021 07:56 9,7 C 8,9 C 7,2 C 96 % 1016,2 hPa 0,0 l/m 0 min 0 min 11 W/m 12,9 km/h (3 Bft) 100,00 %
07.11.2021 07:58 9,7 C 8,9 C 7,2 C 96 % 1016,2 hPa 0,0 l/m 0 min 0 min 12 W/m 19,3 km/h (3 Bft) 100,00 %
07.11.2021 08:00 9,7 C 9,4 C 7,2 C 96 % 1016,3 hPa 0,0 l/m 0 min 0 min 12 W/m 16,1 km/h (3 Bft) 100,00 %
07.11.2021 08:02 9,8 C 9,4 C 7,2 C 96 % 1016,4 hPa 0,0 l/m 0 min 0 min 8 W/m 19,3 km/h (3 Bft) 97,92 %
07.11.2021 08:04 9,8 C 9,4 C 7,2 C 96 % 1016,4 hPa 0,0 l/m 0 min 0 min 9 W/m 12,9 km/h (3 Bft) 100,00 %
07.11.2021 08:06 9,8 C 9,4 C 7,2 C 96 % 1016,4 hPa 0,0 l/m 0 min 0 min 12 W/m 12,9 km/h (3 Bft) 100,00 %
07.11.2021 08:08 9,8 C 9,4 C 7,2 C 96 % 1016,5 hPa 0,0 l/m 0 min 0 min 12 W/m 12,9 km/h (3 Bft) 100,00 %
07.11.2021 08:10 9,8 C 9,4 C 7,2 C 96 % 1016,4 hPa 0,0 l/m 0 min 0 min 14 W/m 19,3 km/h (3 Bft) 100,00 %
07.11.2021 08:12 9,8 C 9,4 C 7,8 C 95 % 1016,4 hPa 0,0 l/m 0 min 0 min 12 W/m 19,3 km/h (3 Bft) 100,00 %
07.11.2021 08:14 9,9 C 9,4 C 7,8 C 95 % 1016,4 hPa 0,0 l/m 0 min 0 min 7 W/m 9,7 km/h (2 Bft) 100,00 %
07.11.2021 08:16 9,9 C 9,4 C 7,8 C 95 % 1016,5 hPa 0,0 l/m 0 min 2 min 3 W/m 19,3 km/h (3 Bft) 100,00 %
07.11.2021 08:18 9,9 C 9,4 C 7,8 C 95 % 1016,5 hPa 0,0 l/m 0 min 2 min 5 W/m 19,3 km/h (3 Bft) 100,00 %
07.11.2021 08:20 9,9 C 9,4 C 7,8 C 95 % 1016,5 hPa 0,0 l/m 0 min 2 min 9 W/m 12,9 km/h (3 Bft) 100,00 %
07.11.2021 08:22 9,9 C 9,4 C 7,8 C 95 % 1016,4 hPa 0,0 l/m 0 min 0 min 13 W/m 12,9 km/h (3 Bft) 100,00 %
07.11.2021 08:24 9,9 C 9,4 C 7,8 C 95 % 1016,3 hPa 0,0 l/m 0 min 0 min 14 W/m 12,9 km/h (3 Bft) 100,00 %
07.11.2021 08:26 9,9 C 9,4 C 7,8 C 95 % 1016,3 hPa 0,0 l/m 0 min 0 min 14 W/m 12,9 km/h (3 Bft) 100,00 %
07.11.2021 08:28 9,9 C 9,4 C 7,8 C 95 % 1016,4 hPa 0,0 l/m 0 min 0 min 11 W/m 16,1 km/h (3 Bft) 100,00 %
07.11.2021 08:30 9,9 C 9,4 C 7,8 C 95 % 1016,5 hPa 0,0 l/m 0 min 0 min 9 W/m 12,9 km/h (3 Bft) 100,00 %
07.11.2021 08:32 9,9 C 9,4 C 7,8 C 95 % 1016,5 hPa 0,0 l/m 0 min 0 min 10 W/m 12,9 km/h (3 Bft) 100,00 %
07.11.2021 08:34 9,9 C 9,4 C 7,8 C 95 % 1016,5 hPa 0,0 l/m 0 min 0 min 15 W/m 19,3 km/h (3 Bft) 97,87 %
07.11.2021 08:36 9,9 C 9,4 C 7,8 C 95 % 1016,4 hPa 0,0 l/m 0 min 0 min 21 W/m 16,1 km/h (3 Bft) 97,87 %
07.11.2021 08:38 9,9 C 9,4 C 7,8 C 95 % 1016,5 hPa 0,0 l/m 0 min 0 min 20 W/m 9,7 km/h (2 Bft) 100,00 %
07.11.2021 08:40 9,9 C 9,4 C 7,8 C 95 % 1016,4 hPa 0,0 l/m 0 min 0 min 17 W/m 29,0 km/h (5 Bft) 100,00 %
07.11.2021 08:42 9,9 C 9,4 C 7,8 C 95 % 1016,4 hPa 0,0 l/m 0 min 0 min 14 W/m 19,3 km/h (3 Bft) 95,74 %
07.11.2021 08:44 9,9 C 9,4 C 7,8 C 95 % 1016,5 hPa 0,0 l/m 0 min 0 min 14 W/m 12,9 km/h (3 Bft) 100,00 %
07.11.2021 08:46 9,9 C 9,4 C 7,8 C 95 % 1016,4 hPa 0,0 l/m 0 min 0 min 18 W/m 12,9 km/h (3 Bft) 100,00 %
07.11.2021 08:48 9,9 C 9,4 C 7,8 C 95 % 1016,3 hPa 0,0 l/m 0 min 0 min 28 W/m 12,9 km/h (3 Bft) 100,00 %
07.11.2021 08:50 9,9 C 9,4 C 7,8 C 95 % 1016,4 hPa 0,0 l/m 0 min 0 min 42 W/m 16,1 km/h (3 Bft) 100,00 %
07.11.2021 08:52 9,9 C 9,4 C 7,8 C 95 % 1016,4 hPa 0,0 l/m 0 min 0 min 55 W/m 9,7 km/h (2 Bft) 97,83 %
07.11.2021 08:54 9,9 C 9,4 C 7,8 C 95 % 1016,4 hPa 0,0 l/m 0 min 0 min 62 W/m 16,1 km/h (3 Bft) 97,87 %
07.11.2021 08:56 9,9 C 9,4 C 7,8 C 95 % 1016,4 hPa 0,0 l/m 0 min 0 min 63 W/m 16,1 km/h (3 Bft) 100,00 %
07.11.2021 08:58 10,0 C 9,4 C 7,8 C 95 % 1016,4 hPa 0,0 l/m 0 min 0 min 74 W/m 12,9 km/h (3 Bft) 100,00 %
07.11.2021 09:00 10,0 C 10,0 C 7,8 C 95 % 1016,4 hPa 0,0 l/m 0 min 0 min 83 W/m 6,4 km/h (2 Bft) 97,87 %
07.11.2021 09:02 10,0 C 10,0 C 7,8 C 95 % 1016,5 hPa 0,0 l/m 0 min 0 min 77 W/m 12,9 km/h (3 Bft) 95,74 %
07.11.2021 09:04 10,0 C 10,0 C 7,8 C 95 % 1016,5 hPa 0,0 l/m 0 min 0 min 66 W/m 16,1 km/h (3 Bft) 95,65 %
07.11.2021 09:06 10,1 C 10,0 C 7,8 C 95 % 1016,5 hPa 0,0 l/m 0 min 0 min 52 W/m 19,3 km/h (3 Bft) 97,87 %
07.11.2021 09:08 10,1 C 10,0 C 7,8 C 95 % 1016,4 hPa 0,0 l/m 0 min 0 min 44 W/m 12,9 km/h (3 Bft) 97,87 %
07.11.2021 09:10 10,1 C 10,0 C 8,3 C 95 % 1016,5 hPa 0,0 l/m 0 min 0 min 48 W/m 16,1 km/h (3 Bft) 95,74 %
07.11.2021 09:12 10,1 C 10,0 C 8,3 C 95 % 1016,5 hPa 0,0 l/m 0 min 0 min 63 W/m 19,3 km/h (3 Bft) 95,74 %
07.11.2021 09:14 10,1 C 10,0 C 8,3 C 95 % 1016,4 hPa 0,0 l/m 0 min 0 min 76 W/m 16,1 km/h (3 Bft) 95,74 %
07.11.2021 09:16 10,2 C 10,0 C 8,3 C 95 % 1016,4 hPa 0,0 l/m 0 min 0 min 62 W/m 19,3 km/h (3 Bft) 93,48 %
07.11.2021 09:18 10,2 C 10,0 C 8,3 C 95 % 1016,4 hPa 0,0 l/m 0 min 0 min 64 W/m 12,9 km/h (3 Bft) 95,74 %
07.11.2021 09:20 10,2 C 10,0 C 8,3 C 95 % 1016,3 hPa 0,0 l/m 0 min 0 min 74 W/m 12,9 km/h (3 Bft) 91,49 %
07.11.2021 09:22 10,3 C 10,0 C 8,3 C 95 % 1016,3 hPa 0,0 l/m 0 min 0 min 82 W/m 12,9 km/h (3 Bft) 91,49 %
07.11.2021 09:24 10,3 C 10,0 C 8,3 C 95 % 1016,5 hPa 0,0 l/m 0 min 0 min 92 W/m 12,9 km/h (3 Bft) 91,49 %
07.11.2021 09:26 10,3 C 10,0 C 8,3 C 95 % 1016,4 hPa 0,0 l/m 0 min 0 min 94 W/m 16,1 km/h (3 Bft) 91,49 %
07.11.2021 09:28 10,3 C 10,0 C 8,3 C 95 % 1016,4 hPa 0,0 l/m 0 min 0 min 98 W/m 22,5 km/h (4 Bft) 93,48 %
07.11.2021 09:30 10,3 C 10,0 C 8,3 C 94 % 1016,5 hPa 0,0 l/m 0 min 0 min 83 W/m 22,5 km/h (4 Bft) 95,74 %
07.11.2021 09:32 10,3 C 10,0 C 8,3 C 94 % 1016,5 hPa 0,0 l/m 0 min 0 min 75 W/m 16,1 km/h (3 Bft) 93,62 %
07.11.2021 09:34 10,3 C 10,0 C 8,3 C 94 % 1016,5 hPa 0,0 l/m 0 min 0 min 71 W/m 19,3 km/h (3 Bft) 93,62 %
07.11.2021 09:36 10,3 C 10,0 C 8,3 C 94 % 1016,4 hPa 0,0 l/m 0 min 0 min 63 W/m 19,3 km/h (3 Bft) 89,36 %
07.11.2021 09:38 10,3 C 10,0 C 8,3 C 94 % 1016,5 hPa 0,0 l/m 0 min 0 min 56 W/m 16,1 km/h (3 Bft) 93,62 %
07.11.2021 09:40 10,3 C 10,0 C 8,3 C 94 % 1016,5 hPa 0,0 l/m 0 min 0 min 61 W/m 16,1 km/h (3 Bft) 91,30 %
07.11.2021 09:42 10,3 C 10,0 C 8,3 C 93 % 1016,5 hPa 0,0 l/m 0 min 0 min 73 W/m 22,5 km/h (4 Bft) 93,62 %
07.11.2021 09:44 10,3 C 10,0 C 8,3 C 93 % 1016,7 hPa 0,0 l/m 0 min 0 min 87 W/m 25,7 km/h (4 Bft) 93,62 %
07.11.2021 09:46 10,3 C 10,0 C 8,3 C 93 % 1016,7 hPa 0,0 l/m 0 min 0 min 97 W/m 25,7 km/h (4 Bft) 97,87 %
07.11.2021 09:48 10,3 C 10,0 C 8,3 C 93 % 1016,7 hPa 0,0 l/m 0 min 0 min 90 W/m 22,5 km/h (4 Bft) 95,74 %
07.11.2021 09:50 10,4 C 10,0 C 8,3 C 93 % 1016,8 hPa 0,0 l/m 0 min 0 min 85 W/m 12,9 km/h (3 Bft) 95,74 %
07.11.2021 09:52 10,4 C 10,0 C 8,3 C 93 % 1016,8 hPa 0,0 l/m 0 min 0 min 99 W/m 19,3 km/h (3 Bft) 97,83 %
07.11.2021 09:54 10,4 C 10,0 C 8,3 C 92 % 1016,7 hPa 0,0 l/m 0 min 0 min 106 W/m 16,1 km/h (3 Bft) 97,87 %
07.11.2021 09:56 10,4 C 10,6 C 8,3 C 92 % 1016,7 hPa 0,0 l/m 0 min 0 min 98 W/m 16,1 km/h (3 Bft) 95,74 %
07.11.2021 09:58 10,4 C 10,6 C 8,3 C 92 % 1016,7 hPa 0,0 l/m 0 min 0 min 107 W/m 12,9 km/h (3 Bft) 97,87 %
07.11.2021 10:00 10,4 C 10,6 C 8,3 C 92 % 1016,7 hPa 0,0 l/m 0 min 0 min 114 W/m 19,3 km/h (3 Bft) 97,87 %
07.11.2021 10:02 10,4 C 10,6 C 8,3 C 92 % 1016,8 hPa 0,0 l/m 0 min 0 min 115 W/m 12,9 km/h (3 Bft) 100,00 %
07.11.2021 10:04 10,5 C 10,6 C 8,3 C 92 % 1016,7 hPa 0,0 l/m 0 min 0 min 109 W/m 25,7 km/h (4 Bft) 97,87 %
07.11.2021 10:06 10,5 C 10,6 C 8,3 C 92 % 1016,7 hPa 0,0 l/m 0 min 0 min 92 W/m 12,9 km/h (3 Bft) 100,00 %
07.11.2021 10:08 10,5 C 10,6 C 8,3 C 91 % 1016,7 hPa 0,0 l/m 0 min 0 min 86 W/m 19,3 km/h (3 Bft) 100,00 %
07.11.2021 10:10 10,5 C 10,6 C 8,3 C 91 % 1016,8 hPa 0,0 l/m 0 min 0 min 94 W/m 12,9 km/h (3 Bft) 100,00 %
07.11.2021 10:12 10,5 C 10,6 C 8,3 C 91 % 1016,8 hPa 0,0 l/m 0 min 0 min 105 W/m 19,3 km/h (3 Bft) 100,00 %
07.11.2021 10:14 10,5 C 10,6 C 8,3 C 91 % 1016,7 hPa 0,0 l/m 0 min 0 min 108 W/m 19,3 km/h (3 Bft) 97,87 %
07.11.2021 10:16 10,5 C 10,6 C 8,3 C 91 % 1016,7 hPa 0,0 l/m 0 min 0 min 107 W/m 19,3 km/h (3 Bft) 97,83 %
07.11.2021 10:18 10,5 C 10,6 C 8,3 C 91 % 1016,7 hPa 0,0 l/m 0 min 0 min 117 W/m 16,1 km/h (3 Bft) 100,00 %
07.11.2021 10:20 10,5 C 10,6 C 8,3 C 91 % 1016,7 hPa 0,0 l/m 0 min 0 min 146 W/m 16,1 km/h (3 Bft) 100,00 %
07.11.2021 10:22 10,5 C 10,6 C 8,3 C 91 % 1016,8 hPa 0,0 l/m 0 min 0 min 152 W/m 16,1 km/h (3 Bft) 100,00 %
07.11.2021 10:24 10,6 C 11,1 C 8,3 C 91 % 1016,8 hPa 0,0 l/m 0 min 0 min 141 W/m 19,3 km/h (3 Bft) 100,00 %
07.11.2021 10:26 10,6 C 11,1 C 8,9 C 91 % 1016,7 hPa 0,0 l/m 0 min 0 min 144 W/m 9,7 km/h (2 Bft) 100,00 %
07.11.2021 10:28 10,6 C 11,1 C 8,9 C 91 % 1016,6 hPa 0,0 l/m 0 min 0 min 131 W/m 12,9 km/h (3 Bft) 100,00 %
07.11.2021 10:30 10,6 C 11,1 C 8,9 C 91 % 1016,7 hPa 0,0 l/m 2 min 0 min 158 W/m 9,7 km/h (2 Bft) 100,00 %
07.11.2021 10:32 10,7 C 12,8 C 8,9 C 90 % 1016,8 hPa 0,0 l/m 2 min 0 min 316 W/m 12,9 km/h (3 Bft) 100,00 %
07.11.2021 10:34 10,8 C 12,8 C 8,9 C 90 % 1016,8 hPa 0,0 l/m 2 min 0 min 244 W/m 12,9 km/h (3 Bft) 100,00 %
07.11.2021 10:36 10,8 C 11,7 C 8,9 C 90 % 1016,9 hPa 0,0 l/m 0 min 0 min 127 W/m 16,1 km/h (3 Bft) 100,00 %
07.11.2021 10:38 10,8 C 11,1 C 8,9 C 90 % 1016,9 hPa 0,0 l/m 0 min 0 min 97 W/m 16,1 km/h (3 Bft) 100,00 %
07.11.2021 10:40 10,8 C 11,1 C 8,9 C 89 % 1016,9 hPa 0,0 l/m 0 min 0 min 84 W/m 19,3 km/h (3 Bft) 100,00 %
07.11.2021 10:42 10,8 C 10,6 C 8,9 C 88 % 1016,9 hPa 0,0 l/m 0 min 0 min 81 W/m 19,3 km/h (3 Bft) 63,83 %
07.11.2021 10:44 10,8 C 10,6 C 8,9 C 87 % 1016,9 hPa 0,0 l/m 0 min 0 min 78 W/m 16,1 km/h (3 Bft) 93,18 %
07.11.2021 10:46 10,8 C 10,6 C 8,3 C 87 % 1017,0 hPa 0,0 l/m 0 min 0 min 76 W/m 12,9 km/h (3 Bft) 100,00 %
07.11.2021 10:48 10,8 C 10,6 C 8,3 C 87 % 1016,9 hPa 0,0 l/m 0 min 0 min 88 W/m 16,1 km/h (3 Bft) 100,00 %
07.11.2021 10:50 10,8 C 10,6 C 8,3 C 86 % 1016,9 hPa 0,0 l/m 0 min 0 min 103 W/m 12,9 km/h (3 Bft) 100,00 %
07.11.2021 10:52 10,8 C 10,6 C 8,3 C 86 % 1016,9 hPa 0,0 l/m 0 min 0 min 124 W/m 16,1 km/h (3 Bft) 100,00 %
07.11.2021 10:54 10,8 C 10,6 C 8,3 C 86 % 1016,9 hPa 0,0 l/m 0 min 0 min 141 W/m 12,9 km/h (3 Bft) 97,87 %
07.11.2021 10:56 10,8 C 10,6 C 8,9 C 86 % 1016,9 hPa 0,0 l/m 0 min 0 min 151 W/m 12,9 km/h (3 Bft) 100,00 %
07.11.2021 10:58 10,8 C 11,1 C 8,9 C 86 % 1016,9 hPa 0,0 l/m 0 min 0 min 160 W/m 12,9 km/h (3 Bft) 100,00 %
07.11.2021 11:00 10,8 C 11,1 C 8,9 C 85 % 1016,9 hPa 0,0 l/m 0 min 0 min 161 W/m 22,5 km/h (4 Bft) 100,00 %
07.11.2021 11:02 10,9 C 11,1 C 8,9 C 85 % 1016,9 hPa 0,0 l/m 0 min 0 min 161 W/m 16,1 km/h (3 Bft) 97,87 %
07.11.2021 11:04 10,9 C 11,1 C 8,9 C 85 % 1016,9 hPa 0,0 l/m 0 min 0 min 159 W/m 12,9 km/h (3 Bft) 100,00 %
07.11.2021 11:06 10,9 C 11,1 C 8,9 C 84 % 1016,9 hPa 0,0 l/m 0 min 0 min 150 W/m 12,9 km/h (3 Bft) 95,74 %
07.11.2021 11:08 11,0 C 11,1 C 8,9 C 84 % 1016,9 hPa 0,0 l/m 0 min 0 min 122 W/m 12,9 km/h (3 Bft) 100,00 %
07.11.2021 11:10 11,0 C 11,1 C 8,9 C 84 % 1016,9 hPa 0,0 l/m 0 min 0 min 115 W/m 12,9 km/h (3 Bft) 100,00 %
07.11.2021 11:12 11,0 C 10,6 C 8,9 C 84 % 1017,0 hPa 0,0 l/m 0 min 0 min 107 W/m 16,1 km/h (3 Bft) 97,87 %
07.11.2021 11:14 11,0 C 10,6 C 8,9 C 83 % 1017,0 hPa 0,0 l/m 0 min 0 min 118 W/m 25,7 km/h (4 Bft) 100,00 %
07.11.2021 11:16 11,0 C 10,6 C 8,9 C 83 % 1017,0 hPa 0,0 l/m 0 min 0 min 130 W/m 22,5 km/h (4 Bft) 97,87 %
07.11.2021 11:18 11,0 C 10,6 C 8,9 C 83 % 1016,9 hPa 0,0 l/m 0 min 0 min 136 W/m 16,1 km/h (3 Bft) 97,87 %
07.11.2021 11:20 11,0 C 10,6 C 8,9 C 83 % 1016,9 hPa 0,0 l/m 0 min 0 min 136 W/m 16,1 km/h (3 Bft) 95,74 %
07.11.2021 11:22 11,0 C 11,1 C 8,9 C 83 % 1016,9 hPa 0,0 l/m 0 min 0 min 134 W/m 22,5 km/h (4 Bft) 97,87 %
07.11.2021 11:24 11,0 C 11,1 C 8,3 C 82 % 1016,8 hPa 0,0 l/m 0 min 0 min 126 W/m 19,3 km/h (3 Bft) 95,65 %
07.11.2021 11:26 11,0 C 10,6 C 8,3 C 82 % 1016,8 hPa 0,0 l/m 0 min 0 min 119 W/m 16,1 km/h (3 Bft) 95,74 %
07.11.2021 11:28 11,0 C 11,1 C 8,3 C 82 % 1016,8 hPa 0,0 l/m 0 min 0 min 135 W/m 16,1 km/h (3 Bft) 97,87 %
07.11.2021 11:30 11,0 C 11,1 C 8,9 C 82 % 1016,7 hPa 0,0 l/m 0 min 0 min 148 W/m 22,5 km/h (4 Bft) 97,87 %
07.11.2021 11:32 11,1 C 11,1 C 8,9 C 82 % 1016,8 hPa 0,0 l/m 0 min 0 min 153 W/m 16,1 km/h (3 Bft) 97,92 %
07.11.2021 11:34 11,2 C 11,7 C 8,9 C 83 % 1016,8 hPa 0,0 l/m 0 min 0 min 178 W/m 12,9 km/h (3 Bft) 95,74 %
07.11.2021 11:36 11,3 C 11,7 C 8,9 C 83 % 1016,9 hPa 0,0 l/m 2 min 0 min 205 W/m 16,1 km/h (3 Bft) 93,62 %
07.11.2021 11:38 11,4 C 11,7 C 8,9 C 82 % 1016,8 hPa 0,0 l/m 2 min 0 min 200 W/m 25,7 km/h (4 Bft) 95,65 %
07.11.2021 11:40 11,5 C 12,2 C 9,4 C 82 % 1016,9 hPa 0,0 l/m 0 min 0 min 170 W/m 19,3 km/h (3 Bft) 95,83 %
07.11.2021 11:42 11,6 C 12,2 C 9,4 C 81 % 1016,8 hPa 0,0 l/m 2 min 0 min 188 W/m 12,9 km/h (3 Bft) 97,83 %
07.11.2021 11:44 11,7 C 12,2 C 9,4 C 81 % 1016,8 hPa 0,0 l/m 2 min 0 min 201 W/m 12,9 km/h (3 Bft) 97,87 %
07.11.2021 11:46 11,8 C 12,2 C 9,4 C 81 % 1016,8 hPa 0,0 l/m 0 min 0 min 181 W/m 19,3 km/h (3 Bft) 94,29 %
07.11.2021 11:48 11,9 C 12,2 C 9,4 C 81 % 1016,8 hPa 0,0 l/m 0 min 0 min 153 W/m 12,9 km/h (3 Bft) 97,87 %
07.11.2021 11:52 11,9 C 11,7 C 9,4 C 80 % 1016,8 hPa 0,0 l/m 0 min 0 min 122 W/m 16,1 km/h (3 Bft) 98,94 %
07.11.2021 11:55 11,8 C 11,7 C 8,9 C 79 % 1016,8 hPa 0,0 l/m 0 min 0 min 124 W/m 16,1 km/h (3 Bft) 95,77 %
07.11.2021 11:56 11,8 C 11,7 C 8,9 C 79 % 1016,8 hPa 0,0 l/m 0 min 0 min 134 W/m 12,9 km/h (3 Bft) 95,83 %
07.11.2021 11:58 11,8 C 11,7 C 8,9 C 79 % 1016,8 hPa 0,0 l/m 0 min 0 min 140 W/m 22,5 km/h (4 Bft) 95,65 %
07.11.2021 12:01 11,7 C 11,7 C 8,9 C 79 % 1016,7 hPa 0,0 l/m 0 min 0 min 156 W/m 32,2 km/h (5 Bft) 95,06 %
07.11.2021 12:02 11,6 C 11,7 C 8,9 C 78 % 1016,7 hPa 0,0 l/m 0 min 0 min 169 W/m 22,5 km/h (4 Bft) 96,00 %
07.11.2021 12:04 11,6 C 11,7 C 8,9 C 78 % 1016,8 hPa 0,0 l/m 0 min 0 min 169 W/m 19,3 km/h (3 Bft) 95,74 %
07.11.2021 12:08 11,6 C 11,7 C 8,9 C 78 % 1016,7 hPa 0,0 l/m 0 min 0 min 146 W/m 22,5 km/h (4 Bft) 93,83 %
07.11.2021 12:10 11,6 C 11,1 C 8,9 C 78 % 1016,6 hPa 0,0 l/m 0 min 0 min 97 W/m 22,5 km/h (4 Bft) 93,62 %
07.11.2021 12:12 11,5 C 11,1 C 8,3 C 78 % 1016,7 hPa 0,0 l/m 0 min 0 min 76 W/m 16,1 km/h (3 Bft) 95,74 %
07.11.2021 12:14 11,5 C 11,1 C 8,3 C 78 % 1016,6 hPa 0,0 l/m 0 min 0 min 91 W/m 19,3 km/h (3 Bft) 95,74 %
07.11.2021 12:16 11,4 C 11,1 C 8,3 C 78 % 1016,6 hPa 0,0 l/m 0 min 0 min 130 W/m 16,1 km/h (3 Bft) 93,62 %
07.11.2021 12:18 11,4 C 11,1 C 8,3 C 78 % 1016,6 hPa 0,0 l/m 0 min 0 min 163 W/m 19,3 km/h (3 Bft) 93,62 %
07.11.2021 12:20 11,4 C 11,1 C 8,3 C 78 % 1016,7 hPa 0,0 l/m 2 min 0 min 194 W/m 16,1 km/h (3 Bft) 97,87 %
07.11.2021 12:22 11,4 C 11,7 C 8,9 C 78 % 1016,7 hPa 0,0 l/m 2 min 0 min 211 W/m 29,0 km/h (5 Bft) 95,65 %
07.11.2021 12:24 11,5 C 11,7 C 8,9 C 78 % 1016,7 hPa 0,0 l/m 0 min 0 min 186 W/m 16,1 km/h (3 Bft) 95,74 %
07.11.2021 12:26 11,5 C 11,7 C 8,9 C 79 % 1016,8 hPa 0,0 l/m 0 min 0 min 168 W/m 16,1 km/h (3 Bft) 93,62 %
07.11.2021 12:28 11,5 C 11,7 C 8,9 C 78 % 1016,7 hPa 0,0 l/m 0 min 0 min 164 W/m 25,7 km/h (4 Bft) 95,74 %
07.11.2021 12:30 11,5 C 11,7 C 8,9 C 78 % 1016,8 hPa 0,0 l/m 0 min 0 min 151 W/m 19,3 km/h (3 Bft) 95,74 %
07.11.2021 12:33 11,5 C 11,7 C 8,9 C 78 % 1016,7 hPa 0,0 l/m 0 min 0 min 161 W/m 19,3 km/h (3 Bft) 95,12 %
07.11.2021 12:34 11,5 C 11,7 C 8,9 C 78 % 1016,7 hPa 0,0 l/m 0 min 0 min 178 W/m 12,9 km/h (3 Bft) 100,00 %
07.11.2021 12:36 11,5 C 11,7 C 8,9 C 78 % 1016,7 hPa 0,0 l/m 2 min 0 min 189 W/m 16,1 km/h (3 Bft) 93,62 %
07.11.2021 12:38 11,5 C 11,7 C 8,9 C 78 % 1016,7 hPa 0,0 l/m 2 min 0 min 191 W/m 19,3 km/h (3 Bft) 97,87 %
07.11.2021 12:40 11,5 C 11,7 C 8,9 C 78 % 1016,7 hPa 0,0 l/m 0 min 0 min 166 W/m 19,3 km/h (3 Bft) 96,49 %
07.11.2021 12:42 11,5 C 11,7 C 8,9 C 78 % 1016,7 hPa 0,0 l/m 0 min 0 min 157 W/m 12,9 km/h (3 Bft) 97,87 %
07.11.2021 12:44 11,5 C 11,7 C 8,9 C 78 % 1016,7 hPa 0,0 l/m 0 min 0 min 106 W/m 16,1 km/h (3 Bft) 100,00 %
07.11.2021 12:46 11,5 C 11,1 C 8,3 C 78 % 1016,6 hPa 0,0 l/m 0 min 0 min 102 W/m 19,3 km/h (3 Bft) 95,74 %
07.11.2021 12:48 11,5 C 11,1 C 8,3 C 78 % 1016,6 hPa 0,0 l/m 0 min 0 min 120 W/m 16,1 km/h (3 Bft) 100,00 %
07.11.2021 12:50 11,4 C 12,2 C 8,3 C 78 % 1016,7 hPa 0,0 l/m 0 min 0 min 169 W/m 19,3 km/h (3 Bft) 100,00 %
07.11.2021 12:52 11,5 C 13,3 C 8,3 C 78 % 1016,6 hPa 0,0 l/m 2 min 0 min 193 W/m 16,1 km/h (3 Bft) 97,87 %
07.11.2021 12:54 11,6 C 13,9 C 8,3 C 78 % 1016,5 hPa 0,0 l/m 2 min 0 min 322 W/m 16,1 km/h (3 Bft) 100,00 %
07.11.2021 12:56 11,6 C 13,9 C 8,3 C 78 % 1016,5 hPa 0,0 l/m 2 min 0 min 347 W/m 16,1 km/h (3 Bft) 97,83 %
07.11.2021 12:58 11,6 C 12,8 C 8,3 C 78 % 1016,5 hPa 0,0 l/m 2 min 0 min 210 W/m 16,1 km/h (3 Bft) 100,00 %
07.11.2021 13:00 11,6 C 12,2 C 8,3 C 77 % 1016,4 hPa 0,0 l/m 0 min 0 min 116 W/m 16,1 km/h (3 Bft) 100,00 %
07.11.2021 13:02 11,6 C 12,2 C 8,3 C 77 % 1016,5 hPa 0,0 l/m 0 min 0 min 122 W/m 16,1 km/h (3 Bft) 100,00 %
07.11.2021 13:04 11,6 C 12,2 C 8,3 C 78 % 1016,4 hPa 0,0 l/m 0 min 0 min 174 W/m 12,9 km/h (3 Bft) 100,00 %
07.11.2021 13:06 11,5 C 11,7 C 8,3 C 77 % 1016,5 hPa 0,0 l/m 0 min 0 min 157 W/m 22,5 km/h (4 Bft) 100,00 %
07.11.2021 13:08 11,5 C 11,7 C 8,3 C 78 % 1016,5 hPa 0,0 l/m 0 min 0 min 140 W/m 16,1 km/h (3 Bft) 100,00 %
07.11.2021 13:10 11,5 C 11,7 C 8,3 C 78 % 1016,4 hPa 0,0 l/m 0 min 0 min 116 W/m 16,1 km/h (3 Bft) 95,74 %
07.11.2021 13:12 11,5 C 11,7 C 8,3 C 78 % 1016,4 hPa 0,0 l/m 0 min 0 min 105 W/m 19,3 km/h (3 Bft) 100,00 %
07.11.2021 13:14 11,5 C 12,2 C 8,3 C 78 % 1016,4 hPa 0,0 l/m 2 min 0 min 324 W/m 16,1 km/h (3 Bft) 100,00 %
07.11.2021 13:16 11,5 C 12,2 C 8,3 C 78 % 1016,3 hPa 0,0 l/m 0 min 0 min 142 W/m 22,5 km/h (4 Bft) 100,00 %
07.11.2021 13:18 11,5 C 12,2 C 8,3 C 77 % 1016,4 hPa 0,0 l/m 0 min 0 min 109 W/m 22,5 km/h (4 Bft) 97,87 %
07.11.2021 13:20 11,5 C 12,2 C 8,3 C 78 % 1016,4 hPa 0,0 l/m 0 min 0 min 121 W/m 12,9 km/h (3 Bft) 100,00 %
07.11.2021 13:22 11,5 C 12,2 C 8,3 C 78 % 1016,3 hPa 0,0 l/m 0 min 0 min 130 W/m 12,9 km/h (3 Bft) 100,00 %
07.11.2021 13:24 11,5 C 11,7 C 8,3 C 78 % 1016,3 hPa 0,0 l/m 0 min 0 min 120 W/m 16,1 km/h (3 Bft) 100,00 %
07.11.2021 13:26 11,5 C 11,7 C 8,3 C 78 % 1016,3 hPa 0,0 l/m 0 min 0 min 157 W/m 12,9 km/h (3 Bft) 95,74 %
07.11.2021 13:28 11,5 C 12,2 C 8,3 C 78 % 1016,3 hPa 0,0 l/m 2 min 0 min 229 W/m 12,9 km/h (3 Bft) 97,87 %
07.11.2021 13:30 11,6 C 12,2 C 8,3 C 78 % 1016,4 hPa 0,0 l/m 2 min 0 min 451 W/m 12,9 km/h (3 Bft) 97,87 %
07.11.2021 13:32 11,7 C 12,8 C 8,3 C 78 % 1016,4 hPa 0,0 l/m 2 min 0 min 431 W/m 22,5 km/h (4 Bft) 95,74 %
07.11.2021 13:34 11,9 C 12,8 C 8,9 C 77 % 1016,4 hPa 0,0 l/m 2 min 0 min 391 W/m 19,3 km/h (3 Bft) 95,65 %
07.11.2021 13:36 11,9 C 12,2 C 8,3 C 77 % 1016,4 hPa 0,0 l/m 0 min 0 min 149 W/m 19,3 km/h (3 Bft) 97,87 %
07.11.2021 13:38 11,8 C 11,7 C 8,3 C 76 % 1016,4 hPa 0,0 l/m 0 min 0 min 91 W/m 22,5 km/h (4 Bft) 100,00 %
07.11.2021 13:40 11,8 C 11,1 C 8,3 C 76 % 1016,4 hPa 0,0 l/m 0 min 0 min 64 W/m 16,1 km/h (3 Bft) 97,87 %
07.11.2021 13:42 11,6 C 11,1 C 8,3 C 77 % 1016,4 hPa 0,0 l/m 0 min 0 min 48 W/m 22,5 km/h (4 Bft) 97,83 %
07.11.2021 13:44 11,5 C 11,1 C 7,8 C 77 % 1016,4 hPa 0,0 l/m 0 min 0 min 68 W/m 19,3 km/h (3 Bft) 96,36 %
07.11.2021 13:46 11,5 C 11,1 C 7,8 C 77 % 1016,4 hPa 0,0 l/m 0 min 0 min 105 W/m 19,3 km/h (3 Bft) 97,87 %
07.11.2021 13:48 11,5 C 11,1 C 7,8 C 78 % 1016,4 hPa 0,0 l/m 0 min 0 min 119 W/m 19,3 km/h (3 Bft) 97,83 %
07.11.2021 13:50 11,4 C 11,7 C 8,3 C 78 % 1016,4 hPa 0,0 l/m 2 min 0 min 172 W/m 12,9 km/h (3 Bft) 97,87 %
07.11.2021 13:52 11,4 C 11,7 C 8,3 C 78 % 1016,3 hPa 0,0 l/m 0 min 0 min 153 W/m 16,1 km/h (3 Bft) 97,87 %
07.11.2021 13:54 11,5 C 11,7 C 8,3 C 78 % 1016,4 hPa 0,0 l/m 0 min 0 min 149 W/m 9,7 km/h (2 Bft) 97,87 %
07.11.2021 13:56 11,5 C 12,2 C 8,3 C 79 % 1016,2 hPa 0,0 l/m 2 min 0 min 361 W/m 12,9 km/h (3 Bft) 97,87 %
07.11.2021 13:58 11,6 C 12,2 C 8,3 C 79 % 1016,2 hPa 0,0 l/m 2 min 0 min 314 W/m 16,1 km/h (3 Bft) 97,87 %
07.11.2021 14:00 11,6 C 12,2 C 8,3 C 78 % 1016,2 hPa 0,0 l/m 0 min 0 min 160 W/m 16,1 km/h (3 Bft) 97,83 %
07.11.2021 14:02 11,7 C 12,8 C 8,3 C 78 % 1016,2 hPa 0,0 l/m 2 min 0 min 262 W/m 16,1 km/h (3 Bft) 97,87 %
07.11.2021 14:04 11,8 C 12,8 C 8,3 C 78 % 1016,2 hPa 0,0 l/m 2 min 0 min 440 W/m 16,1 km/h (3 Bft) 97,87 %
07.11.2021 14:06 11,9 C 13,3 C 8,9 C 78 % 1016,2 hPa 0,0 l/m 2 min 0 min 438 W/m 22,5 km/h (4 Bft) 100,00 %
07.11.2021 14:08 12,0 C 13,3 C 8,9 C 77 % 1016,2 hPa 0,0 l/m 2 min 0 min 366 W/m 16,1 km/h (3 Bft) 100,00 %
07.11.2021 14:10 12,1 C 13,9 C 8,9 C 76 % 1016,1 hPa 0,0 l/m 2 min 0 min 339 W/m 6,4 km/h (2 Bft) 100,00 %
07.11.2021 14:12 12,3 C 15,0 C 8,9 C 76 % 1016,1 hPa 0,0 l/m 2 min 0 min 345 W/m 12,9 km/h (3 Bft) 100,00 %
07.11.2021 14:14 12,3 C 15,0 C 8,9 C 76 % 1016,0 hPa 0,0 l/m 2 min 0 min 357 W/m 22,5 km/h (4 Bft) 100,00 %
07.11.2021 14:16 12,4 C 14,4 C 8,9 C 75 % 1015,9 hPa 0,0 l/m 2 min 0 min 349 W/m 19,3 km/h (3 Bft) 97,87 %
07.11.2021 14:18 12,4 C 14,4 C 8,9 C 75 % 1016,1 hPa 0,0 l/m 2 min 0 min 332 W/m 25,7 km/h (4 Bft) 100,00 %
07.11.2021 14:20 12,5 C 13,9 C 8,9 C 74 % 1016,0 hPa 0,0 l/m 2 min 0 min 323 W/m 25,7 km/h (4 Bft) 100,00 %
07.11.2021 14:22 12,4 C 13,3 C 8,9 C 73 % 1016,0 hPa 0,0 l/m 2 min 0 min 271 W/m 16,1 km/h (3 Bft) 100,00 %
07.11.2021 14:24 12,3 C 12,8 C 8,9 C 73 % 1016,1 hPa 0,0 l/m 2 min 0 min 192 W/m 22,5 km/h (4 Bft) 100,00 %
07.11.2021 14:26 12,2 C 12,2 C 8,3 C 73 % 1016,1 hPa 0,0 l/m 2 min 0 min 149 W/m 19,3 km/h (3 Bft) 95,74 %
07.11.2021 14:28 12,1 C 12,2 C 8,3 C 73 % 1016,2 hPa 0,0 l/m 2 min 0 min 147 W/m 19,3 km/h (3 Bft) 97,87 %
07.11.2021 14:30 12,1 C 12,2 C 8,3 C 74 % 1016,1 hPa 0,0 l/m 2 min 0 min 158 W/m 19,3 km/h (3 Bft) 95,74 %
07.11.2021 14:32 12,0 C 12,8 C 8,3 C 74 % 1016,2 hPa 0,0 l/m 2 min 0 min 198 W/m 12,9 km/h (3 Bft) 97,87 %
07.11.2021 14:34 12,0 C 12,2 C 8,3 C 74 % 1016,2 hPa 0,0 l/m 2 min 0 min 152 W/m 22,5 km/h (4 Bft) 95,74 %
07.11.2021 14:36 11,9 C 12,2 C 8,3 C 75 % 1016,2 hPa 0,0 l/m 2 min 0 min 183 W/m 19,3 km/h (3 Bft) 97,83 %
07.11.2021 14:38 11,8 C 12,2 C 8,3 C 75 % 1016,2 hPa 0,0 l/m 2 min 0 min 257 W/m 19,3 km/h (3 Bft) 97,87 %
07.11.2021 14:40 11,8 C 12,2 C 8,3 C 75 % 1016,2 hPa 0,0 l/m 2 min 0 min 147 W/m 19,3 km/h (3 Bft) 97,87 %
07.11.2021 14:42 11,8 C 12,8 C 8,3 C 75 % 1016,2 hPa 0,0 l/m 2 min 0 min 197 W/m 22,5 km/h (4 Bft) 95,74 %
07.11.2021 14:44 11,8 C 12,8 C 8,3 C 75 % 1016,2 hPa 0,0 l/m 2 min 0 min 263 W/m 19,3 km/h (3 Bft) 97,87 %
07.11.2021 14:46 11,8 C 13,3 C 8,3 C 76 % 1016,2 hPa 0,0 l/m 2 min 0 min 286 W/m 19,3 km/h (3 Bft) 97,87 %
07.11.2021 14:48 11,9 C 13,3 C 8,3 C 76 % 1016,2 hPa 0,0 l/m 2 min 0 min 238 W/m 32,2 km/h (5 Bft) 97,83 %
07.11.2021 14:50 11,9 C 12,8 C 8,3 C 75 % 1016,2 hPa 0,0 l/m 2 min 0 min 237 W/m 22,5 km/h (4 Bft) 95,74 %
07.11.2021 14:52 11,9 C 12,8 C 8,3 C 74 % 1016,1 hPa 0,0 l/m 2 min 0 min 242 W/m 22,5 km/h (4 Bft) 95,74 %
07.11.2021 14:54 11,9 C 12,8 C 8,3 C 74 % 1016,2 hPa 0,0 l/m 2 min 0 min 244 W/m 19,3 km/h (3 Bft) 95,74 %
07.11.2021 14:56 11,9 C 12,8 C 8,3 C 75 % 1016,2 hPa 0,0 l/m 2 min 0 min 197 W/m 16,1 km/h (3 Bft) 95,74 %
07.11.2021 14:58 11,8 C 11,7 C 7,8 C 74 % 1016,1 hPa 0,0 l/m 0 min 0 min 60 W/m 45,1 km/h (6 Bft) 97,87 %
07.11.2021 15:00 11,7 C 11,1 C 7,8 C 74 % 1016,1 hPa 0,0 l/m 0 min 0 min 51 W/m 16,1 km/h (3 Bft) 95,65 %
07.11.2021 15:02 11,6 C 11,1 C 7,8 C 75 % 1016,1 hPa 0,0 l/m 0 min 0 min 53 W/m 16,1 km/h (3 Bft) 97,87 %
07.11.2021 15:04 11,5 C 11,1 C 7,8 C 75 % 1016,1 hPa 0,0 l/m 0 min 0 min 105 W/m 16,1 km/h (3 Bft) 97,87 %
07.11.2021 15:06 11,5 C 11,1 C 7,8 C 75 % 1016,1 hPa 0,0 l/m 2 min 0 min 135 W/m 32,2 km/h (5 Bft) 97,87 %
07.11.2021 15:08 11,4 C 11,1 C 7,8 C 75 % 1016,0 hPa 0,0 l/m 0 min 0 min 90 W/m 25,7 km/h (4 Bft) 95,74 %
07.11.2021 15:10 11,4 C 11,1 C 7,8 C 76 % 1015,9 hPa 0,0 l/m 2 min 0 min 185 W/m 22,5 km/h (4 Bft) 95,74 %
07.11.2021 15:12 11,4 C 11,1 C 7,8 C 76 % 1015,8 hPa 0,0 l/m 2 min 0 min 177 W/m 12,9 km/h (3 Bft) 97,83 %
07.11.2021 15:14 11,4 C 11,1 C 7,8 C 76 % 1015,9 hPa 0,0 l/m 2 min 0 min 178 W/m 12,9 km/h (3 Bft) 97,87 %
07.11.2021 15:16 11,4 C 11,1 C 7,8 C 76 % 1015,9 hPa 0,0 l/m 2 min 0 min 181 W/m 16,1 km/h (3 Bft) 95,74 %
07.11.2021 15:18 11,4 C 11,1 C 7,8 C 76 % 1015,9 hPa 0,0 l/m 2 min 0 min 174 W/m 16,1 km/h (3 Bft) 97,87 %
07.11.2021 15:20 11,4 C 11,1 C 7,8 C 76 % 1016,0 hPa 0,0 l/m 2 min 0 min 167 W/m 19,3 km/h (3 Bft) 97,87 %
07.11.2021 15:22 11,4 C 11,1 C 7,8 C 76 % 1016,0 hPa 0,0 l/m 2 min 0 min 139 W/m 12,9 km/h (3 Bft) 95,65 %
07.11.2021 15:24 11,4 C 11,1 C 7,8 C 77 % 1016,0 hPa 0,0 l/m 2 min 0 min 158 W/m 25,7 km/h (4 Bft) 97,87 %
07.11.2021 15:26 11,4 C 11,1 C 7,8 C 77 % 1016,1 hPa 0,0 l/m 2 min 0 min 130 W/m 22,5 km/h (4 Bft) 97,87 %
07.11.2021 15:28 11,4 C 11,1 C 7,8 C 76 % 1016,1 hPa 0,0 l/m 0 min 0 min 81 W/m 19,3 km/h (3 Bft) 93,62 %
07.11.2021 15:30 11,4 C 11,1 C 7,8 C 76 % 1016,1 hPa 0,0 l/m 0 min 0 min 63 W/m 12,9 km/h (3 Bft) 97,87 %
07.11.2021 15:32 11,3 C 10,6 C 7,8 C 76 % 1016,1 hPa 0,0 l/m 0 min 0 min 57 W/m 25,7 km/h (4 Bft) 97,87 %
07.11.2021 15:34 11,3 C 10,6 C 7,8 C 76 % 1016,2 hPa 0,0 l/m 0 min 0 min 56 W/m 16,1 km/h (3 Bft) 97,87 %
07.11.2021 15:36 11,2 C 10,6 C 7,2 C 76 % 1016,2 hPa 0,0 l/m 0 min 0 min 53 W/m 29,0 km/h (5 Bft) 97,83 %
07.11.2021 15:38 11,2 C 10,6 C 7,2 C 76 % 1016,2 hPa 0,0 l/m 0 min 0 min 52 W/m 22,5 km/h (4 Bft) 97,87 %
07.11.2021 15:40 11,1 C 10,6 C 7,2 C 76 % 1016,3 hPa 0,0 l/m 0 min 0 min 49 W/m 16,1 km/h (3 Bft) 97,87 %
07.11.2021 15:42 11,1 C 10,6 C 7,2 C 76 % 1016,2 hPa 0,0 l/m 0 min 0 min 45 W/m 12,9 km/h (3 Bft) 97,87 %
07.11.2021 15:44 11,1 C 10,6 C 7,2 C 76 % 1016,3 hPa 0,0 l/m 0 min 0 min 43 W/m 19,3 km/h (3 Bft) 95,74 %
07.11.2021 15:46 11,0 C 10,6 C 7,2 C 76 % 1016,3 hPa 0,0 l/m 0 min 0 min 46 W/m 9,7 km/h (2 Bft) 97,87 %
07.11.2021 15:48 11,0 C 10,6 C 7,2 C 76 % 1016,3 hPa 0,0 l/m 0 min 0 min 58 W/m 12,9 km/h (3 Bft) 100,00 %
07.11.2021 15:50 11,0 C 10,6 C 7,2 C 77 % 1016,4 hPa 0,0 l/m 0 min 0 min 64 W/m 12,9 km/h (3 Bft) 97,87 %
07.11.2021 15:52 10,9 C 10,6 C 7,2 C 77 % 1016,4 hPa 0,0 l/m 0 min 0 min 63 W/m 22,5 km/h (4 Bft) 100,00 %
07.11.2021 15:54 10,9 C 10,6 C 7,2 C 77 % 1016,4 hPa 0,0 l/m 0 min 0 min 61 W/m 16,1 km/h (3 Bft) 100,00 %
07.11.2021 15:56 10,9 C 10,6 C 7,2 C 77 % 1016,5 hPa 0,0 l/m 0 min 0 min 62 W/m 12,9 km/h (3 Bft) 97,87 %
07.11.2021 15:58 10,9 C 10,6 C 7,2 C 77 % 1016,4 hPa 0,0 l/m 0 min 0 min 58 W/m 19,3 km/h (3 Bft) 97,87 %
07.11.2021 16:00 10,9 C 10,6 C 7,2 C 77 % 1016,4 hPa 0,0 l/m 0 min 0 min 48 W/m 16,1 km/h (3 Bft) 97,83 %
07.11.2021 16:02 10,9 C 10,6 C 7,2 C 77 % 1016,4 hPa 0,0 l/m 0 min 0 min 42 W/m 19,3 km/h (3 Bft) 95,74 %
07.11.2021 16:04 10,9 C 10,6 C 7,2 C 77 % 1016,5 hPa 0,0 l/m 0 min 0 min 35 W/m 19,3 km/h (3 Bft) 97,87 %
07.11.2021 16:06 10,9 C 10,6 C 7,2 C 77 % 1016,5 hPa 0,0 l/m 0 min 0 min 29 W/m 16,1 km/h (3 Bft) 95,74 %
07.11.2021 16:08 10,9 C 10,6 C 7,2 C 77 % 1016,6 hPa 0,0 l/m 0 min 0 min 29 W/m 22,5 km/h (4 Bft) 97,87 %
07.11.2021 16:10 10,9 C 10,6 C 7,2 C 77 % 1016,5 hPa 0,0 l/m 0 min 0 min 26 W/m 25,7 km/h (4 Bft) 95,65 %
07.11.2021 16:12 10,9 C 10,6 C 7,2 C 76 % 1016,5 hPa 0,0 l/m 0 min 0 min 26 W/m 19,3 km/h (3 Bft) 97,92 %
07.11.2021 16:14 10,9 C 10,0 C 7,2 C 77 % 1016,5 hPa 0,0 l/m 0 min 0 min 26 W/m 16,1 km/h (3 Bft) 97,83 %
07.11.2021 16:16 10,9 C 10,0 C 7,2 C 76 % 1016,5 hPa 0,0 l/m 0 min 0 min 24 W/m 16,1 km/h (3 Bft) 97,87 %
07.11.2021 16:18 10,8 C 10,0 C 7,2 C 76 % 1016,5 hPa 0,0 l/m 0 min 0 min 22 W/m 25,7 km/h (4 Bft) 97,87 %
07.11.2021 16:20 10,8 C 10,0 C 7,2 C 76 % 1016,5 hPa 0,0 l/m 0 min 0 min 21 W/m 22,5 km/h (4 Bft) 41,18 %
07.11.2021 16:22 10,8 C 10,0 C 7,2 C 76 % 1016,5 hPa 0,0 l/m 0 min 0 min 19 W/m 22,5 km/h (4 Bft) 97,78 %
07.11.2021 16:24 10,8 C 10,0 C 7,2 C 76 % 1016,5 hPa 0,0 l/m 0 min 0 min 18 W/m 22,5 km/h (4 Bft) 97,87 %
07.11.2021 16:26 10,7 C 10,0 C 7,2 C 76 % 1016,5 hPa 0,0 l/m 0 min 0 min 18 W/m 35,4 km/h (5 Bft) 97,87 %
07.11.2021 16:28 10,7 C 10,0 C 7,2 C 76 % 1016,5 hPa 0,0 l/m 0 min 0 min 17 W/m 22,5 km/h (4 Bft) 97,87 %
07.11.2021 16:30 10,6 C 10,0 C 7,2 C 77 % 1016,6 hPa 0,0 l/m 0 min 0 min 12 W/m 25,7 km/h (4 Bft) 97,87 %
07.11.2021 16:32 10,6 C 10,0 C 7,2 C 77 % 1016,6 hPa 0,0 l/m 0 min 0 min 9 W/m 25,7 km/h (4 Bft) 97,87 %
07.11.2021 16:34 10,6 C 10,0 C 6,7 C 77 % 1016,7 hPa 0,0 l/m 0 min 0 min 7 W/m 19,3 km/h (3 Bft) 100,00 %
07.11.2021 16:36 10,5 C 10,0 C 6,7 C 77 % 1016,7 hPa 0,0 l/m 0 min 0 min 7 W/m 19,3 km/h (3 Bft) 100,00 %
07.11.2021 16:38 10,5 C 10,0 C 6,7 C 77 % 1016,7 hPa 0,0 l/m 0 min 0 min 5 W/m 16,1 km/h (3 Bft) 100,00 %
07.11.2021 16:40 10,5 C 10,0 C 6,7 C 77 % 1016,7 hPa 0,0 l/m 0 min 0 min 5 W/m 19,3 km/h (3 Bft) 100,00 %
07.11.2021 16:42 10,5 C 10,0 C 6,7 C 77 % 1016,8 hPa 0,0 l/m 0 min 0 min 5 W/m 16,1 km/h (3 Bft) 100,00 %
07.11.2021 16:44 10,5 C 10,0 C 6,7 C 78 % 1016,8 hPa 0,0 l/m 0 min 0 min 5 W/m 29,0 km/h (5 Bft) 100,00 %
07.11.2021 16:46 10,4 C 10,0 C 6,7 C 78 % 1016,8 hPa 0,0 l/m 0 min 0 min 0 W/m 19,3 km/h (3 Bft) 100,00 %
07.11.2021 16:48 10,4 C 9,4 C 6,7 C 78 % 1016,8 hPa 0,0 l/m 0 min 0 min 0 W/m 16,1 km/h (3 Bft) 100,00 %
07.11.2021 16:50 10,4 C 9,4 C 6,7 C 78 % 1016,9 hPa 0,0 l/m 0 min 0 min 0 W/m 12,9 km/h (3 Bft) 100,00 %
07.11.2021 16:52 10,4 C 9,4 C 6,7 C 78 % 1016,8 hPa 0,0 l/m 0 min 0 min 0 W/m 16,1 km/h (3 Bft) 97,87 %
07.11.2021 16:54 10,3 C 9,4 C 6,7 C 79 % 1016,8 hPa 0,0 l/m 0 min 0 min 0 W/m 16,1 km/h (3 Bft) 97,87 %
07.11.2021 16:56 10,3 C 9,4 C 6,7 C 78 % 1016,9 hPa 0,0 l/m 0 min 0 min 0 W/m 12,9 km/h (3 Bft) 97,83 %
07.11.2021 16:58 10,3 C 9,4 C 6,7 C 78 % 1016,9 hPa 0,0 l/m 0 min 0 min 0 W/m 22,5 km/h (4 Bft) 100,00 %
07.11.2021 17:00 10,2 C 9,4 C 6,7 C 79 % 1016,9 hPa 0,0 l/m 0 min 0 min 0 W/m 12,9 km/h (3 Bft) 97,87 %
07.11.2021 17:02 10,2 C 9,4 C 6,7 C 79 % 1016,8 hPa 0,0 l/m 0 min 0 min 0 W/m 16,1 km/h (3 Bft) 97,87 %
07.11.2021 17:04 10,1 C 9,4 C 6,7 C 79 % 1016,9 hPa 0,0 l/m 0 min 0 min 0 W/m 16,1 km/h (3 Bft) 97,87 %
07.11.2021 17:06 10,1 C 9,4 C 6,7 C 79 % 1017,0 hPa 0,0 l/m 0 min 0 min 0 W/m 22,5 km/h (4 Bft) 97,87 %
07.11.2021 17:08 10,1 C 9,4 C 6,7 C 79 % 1017,0 hPa 0,0 l/m 0 min 0 min 0 W/m 16,1 km/h (3 Bft) 95,74 %
07.11.2021 17:10 10,1 C 9,4 C 6,7 C 79 % 1017,0 hPa 0,0 l/m 0 min 0 min 0 W/m 22,5 km/h (4 Bft) 97,87 %
07.11.2021 17:12 10,1 C 9,4 C 6,7 C 79 % 1017,0 hPa 0,0 l/m 0 min 0 min 0 W/m 16,1 km/h (3 Bft) 97,83 %
07.11.2021 17:14 10,1 C 9,4 C 6,7 C 79 % 1017,0 hPa 0,0 l/m 0 min 0 min 0 W/m 12,9 km/h (3 Bft) 97,87 %
07.11.2021 17:16 10,0 C 9,4 C 6,7 C 80 % 1017,0 hPa 0,0 l/m 0 min 0 min 0 W/m 12,9 km/h (3 Bft) 97,87 %
07.11.2021 17:18 10,0 C 9,4 C 6,7 C 80 % 1016,9 hPa 0,0 l/m 0 min 0 min 0 W/m 12,9 km/h (3 Bft) 95,74 %
07.11.2021 17:20 10,0 C 9,4 C 6,7 C 80 % 1017,0 hPa 0,0 l/m 0 min 0 min 0 W/m 12,9 km/h (3 Bft) 97,83 %
07.11.2021 17:22 10,0 C 9,4 C 6,1 C 80 % 1017,0 hPa 0,0 l/m 0 min 0 min 0 W/m 6,4 km/h (2 Bft) 95,74 %
07.11.2021 17:24 10,0 C 9,4 C 6,1 C 80 % 1017,0 hPa 0,0 l/m 0 min 0 min 0 W/m 12,9 km/h (3 Bft) 97,87 %
07.11.2021 17:26 10,0 C 9,4 C 6,1 C 80 % 1017,0 hPa 0,0 l/m 0 min 0 min 0 W/m 6,4 km/h (2 Bft) 95,74 %
07.11.2021 17:28 10,0 C 9,4 C 6,1 C 81 % 1017,0 hPa 0,0 l/m 0 min 0 min 0 W/m 6,4 km/h (2 Bft) 95,74 %
07.11.2021 17:30 9,9 C 9,4 C 6,1 C 81 % 1017,1 hPa 0,0 l/m 0 min 0 min 0 W/m 6,4 km/h (2 Bft) 95,74 %
07.11.2021 17:32 9,9 C 9,4 C 6,1 C 81 % 1017,1 hPa 0,0 l/m 0 min 0 min 0 W/m 16,1 km/h (3 Bft) 97,87 %
07.11.2021 17:34 9,9 C 9,4 C 6,1 C 81 % 1017,2 hPa 0,0 l/m 0 min 0 min 0 W/m 12,9 km/h (3 Bft) 97,83 %
07.11.2021 17:36 9,9 C 9,4 C 6,1 C 81 % 1017,2 hPa 0,0 l/m 0 min 0 min 0 W/m 16,1 km/h (3 Bft) 95,74 %
07.11.2021 17:38 9,9 C 9,4 C 6,1 C 81 % 1017,2 hPa 0,0 l/m 0 min 0 min 0 W/m 6,4 km/h (2 Bft) 95,74 %
07.11.2021 17:40 9,9 C 8,9 C 6,1 C 81 % 1017,3 hPa 0,0 l/m 0 min 0 min 0 W/m 16,1 km/h (3 Bft) 93,62 %
07.11.2021 17:42 9,9 C 8,9 C 6,1 C 81 % 1017,2 hPa 0,0 l/m 0 min 2 min 0 W/m 12,9 km/h (3 Bft) 93,62 %
07.11.2021 17:44 9,8 C 8,9 C 6,1 C 82 % 1017,2 hPa 0,0 l/m 0 min 2 min 0 W/m 19,3 km/h (3 Bft) 97,87 %
07.11.2021 17:46 9,8 C 8,9 C 6,1 C 82 % 1017,2 hPa 0,0 l/m 0 min 2 min 0 W/m 19,3 km/h (3 Bft) 97,83 %
07.11.2021 17:48 9,8 C 8,9 C 5,6 C 83 % 1017,3 hPa 0,0 l/m 0 min 2 min 0 W/m 12,9 km/h (3 Bft) 97,87 %
07.11.2021 17:50 9,7 C 8,9 C 5,6 C 83 % 1017,4 hPa 0,0 l/m 0 min 2 min 0 W/m 12,9 km/h (3 Bft) 95,74 %
07.11.2021 17:52 9,6 C 8,9 C 5,6 C 84 % 1017,4 hPa 0,0 l/m 0 min 2 min 0 W/m 19,3 km/h (3 Bft) 95,74 %
07.11.2021 17:54 9,6 C 8,3 C 5,6 C 84 % 1017,5 hPa 0,0 l/m 0 min 2 min 0 W/m 16,1 km/h (3 Bft) 97,87 %
07.11.2021 17:56 9,5 C 8,3 C 5,0 C 84 % 1017,4 hPa 0,0 l/m 0 min 2 min 0 W/m 12,9 km/h (3 Bft) 95,74 %
07.11.2021 17:58 9,5 C 8,3 C 5,0 C 85 % 1017,5 hPa 0,0 l/m 0 min 2 min 0 W/m 12,9 km/h (3 Bft) 93,48 %
07.11.2021 18:00 9,5 C 8,3 C 5,0 C 85 % 1017,6 hPa 0,0 l/m 0 min 2 min 0 W/m 12,9 km/h (3 Bft) 93,75 %
07.11.2021 18:02 9,4 C 8,3 C 5,0 C 85 % 1017,6 hPa 0,0 l/m 0 min 2 min 0 W/m 16,1 km/h (3 Bft) 95,65 %
07.11.2021 18:04 9,4 C 8,3 C 5,0 C 86 % 1017,6 hPa 0,0 l/m 0 min 2 min 0 W/m 9,7 km/h (2 Bft) 93,62 %
07.11.2021 18:08 9,3 C 8,3 C 5,0 C 86 % 1017,6 hPa 0,0 l/m 0 min 0 min 0 W/m 12,9 km/h (3 Bft) 95,74 %
07.11.2021 18:10 9,2 C 7,8 C 5,0 C 86 % 1017,6 hPa 0,2 l/m 0 min 0 min 0 W/m 12,9 km/h (3 Bft) 95,65 %
07.11.2021 18:12 9,1 C 7,8 C 5,0 C 87 % 1017,6 hPa 0,0 l/m 0 min 0 min 0 W/m 6,4 km/h (2 Bft) 93,62 %
07.11.2021 18:14 9,0 C 7,8 C 5,0 C 87 % 1017,7 hPa 0,0 l/m 0 min 0 min 0 W/m 6,4 km/h (2 Bft) 95,74 %
07.11.2021 18:16 9,0 C 7,8 C 5,0 C 87 % 1017,7 hPa 0,0 l/m 0 min 0 min 0 W/m 9,7 km/h (2 Bft) 97,87 %
07.11.2021 18:18 9,0 C 7,8 C 5,0 C 88 % 1017,7 hPa 0,0 l/m 0 min 0 min 0 W/m 6,4 km/h (2 Bft) 97,87 %
07.11.2021 18:20 8,9 C 7,8 C 5,0 C 88 % 1017,7 hPa 0,0 l/m 0 min 0 min 0 W/m 9,7 km/h (2 Bft) 97,87 %
07.11.2021 18:22 8,9 C 8,3 C 5,0 C 88 % 1017,7 hPa 0,0 l/m 0 min 0 min 0 W/m 9,7 km/h (2 Bft) 95,65 %
07.11.2021 18:24 8,9 C 8,3 C 5,0 C 88 % 1017,8 hPa 0,0 l/m 0 min 2 min 0 W/m 12,9 km/h (3 Bft) 100,00 %
07.11.2021 18:26 8,9 C 8,3 C 5,0 C 88 % 1017,9 hPa 0,0 l/m 0 min 2 min 0 W/m 12,9 km/h (3 Bft) 97,87 %
07.11.2021 18:28 8,9 C 8,3 C 5,0 C 88 % 1017,9 hPa 0,0 l/m 0 min 2 min 0 W/m 6,4 km/h (2 Bft) 100,00 %
07.11.2021 18:30 8,9 C 8,3 C 5,0 C 88 % 1017,9 hPa 0,0 l/m 0 min 2 min 0 W/m 9,7 km/h (2 Bft) 100,00 %
07.11.2021 18:32 8,8 C 8,3 C 5,0 C 88 % 1017,9 hPa 0,0 l/m 0 min 2 min 0 W/m 9,7 km/h (2 Bft) 100,00 %
07.11.2021 18:34 8,8 C 7,8 C 5,0 C 89 % 1017,8 hPa 0,0 l/m 0 min 2 min 0 W/m 6,4 km/h (2 Bft) 100,00 %
07.11.2021 18:36 8,8 C 8,3 C 5,0 C 89 % 1017,8 hPa 0,0 l/m 0 min 0 min 0 W/m 9,7 km/h (2 Bft) 100,00 %
07.11.2021 18:38 8,8 C 7,8 C 5,0 C 89 % 1017,9 hPa 0,0 l/m 0 min 0 min 0 W/m 9,7 km/h (2 Bft) 97,87 %
07.11.2021 18:40 8,8 C 8,3 C 5,0 C 89 % 1018,0 hPa 0,0 l/m 0 min 0 min 0 W/m 9,7 km/h (2 Bft) 100,00 %
07.11.2021 18:42 8,8 C 7,8 C 5,0 C 89 % 1018,0 hPa 0,0 l/m 0 min 0 min 0 W/m 9,7 km/h (2 Bft) 100,00 %
07.11.2021 18:44 8,8 C 7,8 C 5,0 C 89 % 1018,0 hPa 0,0 l/m 0 min 0 min 0 W/m 16,1 km/h (3 Bft) 95,65 %
07.11.2021 18:46 8,7 C 7,8 C 5,0 C 89 % 1018,0 hPa 0,0 l/m 0 min 0 min 0 W/m 19,3 km/h (3 Bft) 100,00 %
07.11.2021 18:48 8,7 C 7,8 C 5,0 C 89 % 1018,1 hPa 0,0 l/m 0 min 0 min 0 W/m 12,9 km/h (3 Bft) 100,00 %
07.11.2021 18:50 8,6 C 7,8 C 5,0 C 89 % 1018,0 hPa 0,0 l/m 0 min 0 min 0 W/m 6,4 km/h (2 Bft) 97,87 %
07.11.2021 18:52 8,6 C 7,8 C 5,0 C 89 % 1018,1 hPa 0,0 l/m 0 min 0 min 0 W/m 12,9 km/h (3 Bft) 100,00 %
07.11.2021 18:54 8,6 C 7,8 C 5,0 C 89 % 1018,1 hPa 0,0 l/m 0 min 0 min 0 W/m 16,1 km/h (3 Bft) 100,00 %
07.11.2021 18:56 8,6 C 7,8 C 5,0 C 89 % 1018,2 hPa 0,0 l/m 0 min 0 min 0 W/m 9,7 km/h (2 Bft) 100,00 %
07.11.2021 18:58 8,6 C 7,8 C 5,0 C 89 % 1018,2 hPa 0,0 l/m 0 min 0 min 0 W/m 16,1 km/h (3 Bft) 97,87 %
07.11.2021 19:00 8,5 C 7,8 C 5,0 C 89 % 1018,1 hPa 0,0 l/m 0 min 0 min 0 W/m 12,9 km/h (3 Bft) 100,00 %
07.11.2021 19:02 8,5 C 7,8 C 5,0 C 89 % 1018,2 hPa 0,0 l/m 0 min 0 min 0 W/m 12,9 km/h (3 Bft) 97,22 %
07.11.2021 19:04 8,5 C 7,8 C 5,0 C 89 % 1018,2 hPa 0,0 l/m 0 min 0 min 0 W/m 6,4 km/h (2 Bft) 100,00 %
07.11.2021 19:06 8,5 C 7,8 C 5,0 C 89 % 1018,2 hPa 0,0 l/m 0 min 0 min 0 W/m 12,9 km/h (3 Bft) 97,87 %
07.11.2021 19:08 8,5 C 7,8 C 5,0 C 89 % 1018,3 hPa 0,0 l/m 0 min 0 min 0 W/m 6,4 km/h (2 Bft) 100,00 %
07.11.2021 19:10 8,5 C 7,8 C 5,0 C 89 % 1018,4 hPa 0,0 l/m 0 min 0 min 0 W/m 6,4 km/h (2 Bft) 100,00 %
07.11.2021 19:12 8,5 C 7,8 C 5,0 C 89 % 1018,3 hPa 0,0 l/m 0 min 2 min 0 W/m 6,4 km/h (2 Bft) 100,00 %
07.11.2021 19:14 8,5 C 7,8 C 5,0 C 89 % 1018,3 hPa 0,0 l/m 0 min 2 min 0 W/m 6,4 km/h (2 Bft) 100,00 %
07.11.2021 19:16 8,5 C 7,8 C 5,0 C 89 % 1018,4 hPa 0,2 l/m 0 min 2 min 0 W/m 6,4 km/h (2 Bft) 100,00 %
07.11.2021 19:18 8,5 C 7,8 C 5,0 C 90 % 1018,3 hPa 0,0 l/m 0 min 2 min 0 W/m 3,2 km/h (1 Bft) 97,87 %
07.11.2021 19:20 8,5 C 7,8 C 5,0 C 90 % 1018,3 hPa 0,0 l/m 0 min 2 min 0 W/m 3,2 km/h (1 Bft) 97,87 %
07.11.2021 19:22 8,5 C 7,8 C 5,0 C 90 % 1018,3 hPa 0,0 l/m 0 min 0 min 0 W/m 3,2 km/h (1 Bft) 100,00 %
07.11.2021 19:24 8,5 C 7,8 C 5,0 C 90 % 1018,3 hPa 0,0 l/m 0 min 0 min 0 W/m 0,0 km/h (0 Bft) 100,00 %
07.11.2021 19:26 8,5 C 7,8 C 5,0 C 90 % 1018,3 hPa 0,0 l/m 0 min 0 min 0 W/m 3,2 km/h (1 Bft) 100,00 %
07.11.2021 19:28 8,5 C 7,2 C 4,4 C 90 % 1018,3 hPa 0,0 l/m 0 min 0 min 0 W/m 3,2 km/h (1 Bft) 100,00 %
07.11.2021 19:30 8,5 C 7,2 C 4,4 C 90 % 1018,3 hPa 0,0 l/m 0 min 0 min 0 W/m 3,2 km/h (1 Bft) 100,00 %
07.11.2021 19:32 8,5 C 7,2 C 4,4 C 90 % 1018,3 hPa 0,0 l/m 0 min 0 min 0 W/m 3,2 km/h (1 Bft) 100,00 %
07.11.2021 19:34 8,4 C 7,2 C 4,4 C 90 % 1018,4 hPa 0,0 l/m 0 min 0 min 0 W/m 3,2 km/h (1 Bft) 97,87 %
07.11.2021 19:36 8,4 C 7,2 C 4,4 C 90 % 1018,4 hPa 0,0 l/m 0 min 0 min 0 W/m 3,2 km/h (1 Bft) 93,62 %
07.11.2021 19:38 8,4 C 7,2 C 4,4 C 90 % 1018,4 hPa 0,0 l/m 0 min 0 min 0 W/m 3,2 km/h (1 Bft) 100,00 %
07.11.2021 19:40 8,4 C 7,2 C 4,4 C 90 % 1018,4 hPa 0,0 l/m 0 min 0 min 0 W/m 0,0 km/h (0 Bft) 100,00 %
07.11.2021 19:42 8,3 C 7,2 C 4,4 C 90 % 1018,5 hPa 0,0 l/m 0 min 0 min 0 W/m 3,2 km/h (1 Bft) 51,16 %
07.11.2021 19:44 8,3 C 7,2 C 4,4 C 90 % 1018,5 hPa 0,0 l/m 0 min 0 min 0 W/m 3,2 km/h (1 Bft) 97,87 %
07.11.2021 19:46 8,2 C 7,2 C 4,4 C 90 % 1018,5 hPa 0,0 l/m 0 min 0 min 0 W/m 6,4 km/h (2 Bft) 95,74 %
07.11.2021 19:48 8,1 C 7,2 C 4,4 C 90 % 1018,4 hPa 0,0 l/m 0 min 0 min 0 W/m 6,4 km/h (2 Bft) 97,87 %
07.11.2021 19:50 8,1 C 7,2 C 4,4 C 90 % 1018,4 hPa 0,0 l/m 0 min 0 min 0 W/m 6,4 km/h (2 Bft) 97,83 %
07.11.2021 19:52 8,1 C 7,2 C 4,4 C 90 % 1018,4 hPa 0,0 l/m 0 min 0 min 0 W/m 12,9 km/h (3 Bft) 97,87 %
07.11.2021 19:54 8,1 C 7,2 C 4,4 C 90 % 1018,4 hPa 0,0 l/m 0 min 0 min 0 W/m 12,9 km/h (3 Bft) 95,74 %
07.11.2021 19:56 8,1 C 7,8 C 4,4 C 90 % 1018,4 hPa 0,0 l/m 0 min 0 min 0 W/m 9,7 km/h (2 Bft) 95,74 %
07.11.2021 19:58 8,1 C 7,8 C 4,4 C 90 % 1018,4 hPa 0,0 l/m 0 min 0 min 0 W/m 12,9 km/h (3 Bft) 95,74 %
07.11.2021 20:00 8,1 C 7,8 C 4,4 C 90 % 1018,3 hPa 0,0 l/m 0 min 0 min 0 W/m 6,4 km/h (2 Bft) 95,74 %
07.11.2021 20:02 8,1 C 7,8 C 4,4 C 90 % 1018,3 hPa 0,0 l/m 0 min 0 min 0 W/m 9,7 km/h (2 Bft) 93,88 %
07.11.2021 20:04 8,1 C 7,8 C 4,4 C 90 % 1018,3 hPa 0,0 l/m 0 min 0 min 0 W/m 6,4 km/h (2 Bft) 91,84 %
07.11.2021 20:06 8,1 C 7,8 C 5,0 C 90 % 1018,3 hPa 0,0 l/m 0 min 0 min 0 W/m 9,7 km/h (2 Bft) 91,49 %
07.11.2021 20:08 8,1 C 7,8 C 5,0 C 90 % 1018,2 hPa 0,0 l/m 0 min 0 min 0 W/m 9,7 km/h (2 Bft) 93,62 %
07.11.2021 20:10 8,2 C 7,8 C 5,0 C 90 % 1018,3 hPa 0,0 l/m 0 min 0 min 0 W/m 9,7 km/h (2 Bft) 95,74 %
07.11.2021 20:12 8,2 C 7,8 C 5,0 C 90 % 1018,3 hPa 0,0 l/m 0 min 0 min 0 W/m 6,4 km/h (2 Bft) 95,65 %
07.11.2021 20:14 8,1 C 7,8 C 5,0 C 90 % 1018,3 hPa 0,0 l/m 0 min 0 min 0 W/m 12,9 km/h (3 Bft) 95,74 %
07.11.2021 20:16 8,1 C 7,8 C 5,0 C 90 % 1018,3 hPa 0,0 l/m 0 min 0 min 0 W/m 12,9 km/h (3 Bft) 95,74 %
07.11.2021 20:18 8,2 C 7,8 C 5,0 C 90 % 1018,4 hPa 0,0 l/m 0 min 0 min 0 W/m 6,4 km/h (2 Bft) 95,24 %
07.11.2021 20:20 8,1 C 7,2 C 5,0 C 90 % 1018,4 hPa 0,0 l/m 0 min 0 min 0 W/m 6,4 km/h (2 Bft) 97,83 %
07.11.2021 20:22 8,1 C 7,2 C 5,0 C 90 % 1018,4 hPa 0,0 l/m 0 min 0 min 0 W/m 6,4 km/h (2 Bft) 94,00 %
07.11.2021 20:24 8,1 C 7,2 C 5,0 C 89 % 1018,4 hPa 0,0 l/m 0 min 0 min 0 W/m 6,4 km/h (2 Bft) 95,74 %
07.11.2021 20:26 8,1 C 7,2 C 5,0 C 89 % 1018,4 hPa 0,0 l/m 0 min 0 min 0 W/m 6,4 km/h (2 Bft) 95,92 %
07.11.2021 20:28 8,0 C 7,2 C 5,0 C 89 % 1018,4 hPa 0,0 l/m 0 min 0 min 0 W/m 12,9 km/h (3 Bft) 97,87 %
07.11.2021 20:30 8,0 C 7,2 C 5,0 C 89 % 1018,5 hPa 0,0 l/m 0 min 0 min 0 W/m 6,4 km/h (2 Bft) 97,87 %
07.11.2021 20:32 8,0 C 7,2 C 5,0 C 89 % 1018,5 hPa 0,0 l/m 0 min 0 min 0 W/m 12,9 km/h (3 Bft) 95,74 %
07.11.2021 20:34 8,0 C 7,2 C 5,0 C 89 % 1018,5 hPa 0,0 l/m 0 min 0 min 0 W/m 6,4 km/h (2 Bft) 95,74 %
07.11.2021 20:36 8,0 C 7,2 C 5,0 C 89 % 1018,6 hPa 0,0 l/m 0 min 0 min 0 W/m 9,7 km/h (2 Bft) 95,65 %
07.11.2021 20:38 8,0 C 7,2 C 5,0 C 89 % 1018,6 hPa 0,0 l/m 0 min 0 min 0 W/m 9,7 km/h (2 Bft) 95,74 %
07.11.2021 20:40 8,0 C 7,2 C 5,0 C 89 % 1018,6 hPa 0,0 l/m 0 min 0 min 0 W/m 12,9 km/h (3 Bft) 97,67 %
07.11.2021 20:42 8,0 C 7,2 C 5,0 C 89 % 1018,6 hPa 0,0 l/m 0 min 0 min 0 W/m 6,4 km/h (2 Bft) 97,87 %
07.11.2021 20:44 8,0 C 7,2 C 5,0 C 89 % 1018,6 hPa 0,0 l/m 0 min 0 min 0 W/m 6,4 km/h (2 Bft) 95,65 %
07.11.2021 20:46 8,0 C 7,2 C 5,0 C 89 % 1018,7 hPa 0,0 l/m 0 min 0 min 0 W/m 6,4 km/h (2 Bft) 97,87 %
07.11.2021 20:48 8,0 C 7,2 C 5,0 C 89 % 1018,7 hPa 0,0 l/m 0 min 0 min 0 W/m 12,9 km/h (3 Bft) 97,87 %
07.11.2021 20:50 8,0 C 7,2 C 5,0 C 90 % 1018,7 hPa 0,0 l/m 0 min 0 min 0 W/m 12,9 km/h (3 Bft) 97,87 %
07.11.2021 20:52 8,1 C 7,2 C 5,0 C 90 % 1018,7 hPa 0,0 l/m 0 min 0 min 0 W/m 9,7 km/h (2 Bft) 95,74 %
07.11.2021 20:54 8,1 C 7,2 C 5,0 C 90 % 1018,7 hPa 0,0 l/m 0 min 0 min 0 W/m 6,4 km/h (2 Bft) 97,87 %
07.11.2021 20:56 8,0 C 7,2 C 5,0 C 90 % 1018,7 hPa 0,0 l/m 0 min 0 min 0 W/m 12,9 km/h (3 Bft) 97,83 %
07.11.2021 20:58 8,0 C 7,2 C 5,0 C 90 % 1018,7 hPa 0,0 l/m 0 min 0 min 0 W/m 3,2 km/h (1 Bft) 95,74 %
07.11.2021 21:00 8,0 C 7,2 C 5,0 C 90 % 1018,8 hPa 0,0 l/m 0 min 0 min 0 W/m 6,4 km/h (2 Bft) 97,87 %
07.11.2021 21:02 8,0 C 7,2 C 5,0 C 90 % 1018,9 hPa 0,0 l/m 0 min 0 min 0 W/m 9,7 km/h (2 Bft) 97,87 %
07.11.2021 21:04 8,0 C 7,2 C 5,0 C 90 % 1019,0 hPa 0,0 l/m 0 min 0 min 0 W/m 6,4 km/h (2 Bft) 100,00 %
07.11.2021 21:06 8,0 C 7,2 C 5,0 C 90 % 1019,0 hPa 0,0 l/m 0 min 0 min 0 W/m 6,4 km/h (2 Bft) 100,00 %
07.11.2021 21:08 8,0 C 7,2 C 5,0 C 90 % 1018,9 hPa 0,0 l/m 0 min 0 min 0 W/m 12,9 km/h (3 Bft) 97,83 %
07.11.2021 21:10 8,0 C 7,2 C 5,0 C 90 % 1019,0 hPa 0,0 l/m 0 min 0 min 0 W/m 3,2 km/h (1 Bft) 100,00 %
07.11.2021 21:12 8,0 C 7,2 C 5,0 C 90 % 1019,0 hPa 0,0 l/m 0 min 0 min 0 W/m 9,7 km/h (2 Bft) 100,00 %
07.11.2021 21:14 7,9 C 7,2 C 5,0 C 91 % 1019,0 hPa 0,0 l/m 0 min 0 min 0 W/m 6,4 km/h (2 Bft) 95,74 %
07.11.2021 21:16 7,9 C 7,2 C 5,0 C 91 % 1019,0 hPa 0,0 l/m 0 min 0 min 0 W/m 3,2 km/h (1 Bft) 97,87 %
07.11.2021 21:18 7,9 C 7,2 C 5,0 C 91 % 1019,1 hPa 0,0 l/m 0 min 0 min 0 W/m 9,7 km/h (2 Bft) 97,87 %
07.11.2021 21:20 7,9 C 7,2 C 5,0 C 90 % 1019,1 hPa 0,0 l/m 0 min 0 min 0 W/m 6,4 km/h (2 Bft) 100,00 %
07.11.2021 21:22 7,9 C 7,2 C 4,4 C 91 % 1019,1 hPa 0,0 l/m 0 min 0 min 0 W/m 6,4 km/h (2 Bft) 100,00 %
07.11.2021 21:24 7,9 C 7,2 C 4,4 C 91 % 1019,1 hPa 0,0 l/m 0 min 0 min 0 W/m 6,4 km/h (2 Bft) 100,00 %
07.11.2021 21:26 7,8 C 7,2 C 4,4 C 91 % 1019,2 hPa 0,0 l/m 0 min 0 min 0 W/m 6,4 km/h (2 Bft) 95,74 %
07.11.2021 21:28 7,8 C 7,2 C 4,4 C 91 % 1019,1 hPa 0,0 l/m 0 min 0 min 0 W/m 6,4 km/h (2 Bft) 97,87 %
07.11.2021 21:30 7,8 C 6,7 C 4,4 C 91 % 1019,2 hPa 0,0 l/m 0 min 0 min 0 W/m 6,4 km/h (2 Bft) 97,87 %
07.11.2021 21:32 7,8 C 6,7 C 4,4 C 91 % 1019,2 hPa 0,0 l/m 0 min 0 min 0 W/m 6,4 km/h (2 Bft) 97,83 %
07.11.2021 21:34 7,7 C 6,7 C 4,4 C 91 % 1019,2 hPa 0,0 l/m 0 min 0 min 0 W/m 12,9 km/h (3 Bft) 97,87 %
07.11.2021 21:36 7,7 C 6,7 C 4,4 C 91 % 1019,2 hPa 0,0 l/m 0 min 0 min 0 W/m 16,1 km/h (3 Bft) 97,87 %
07.11.2021 21:38 7,7 C 6,7 C 4,4 C 91 % 1019,2 hPa 0,0 l/m 0 min 0 min 0 W/m 12,9 km/h (3 Bft) 97,87 %
07.11.2021 21:40 7,7 C 6,7 C 4,4 C 91 % 1019,2 hPa 0,0 l/m 0 min 0 min 0 W/m 12,9 km/h (3 Bft) 97,87 %
07.11.2021 21:42 7,6 C 6,7 C 4,4 C 91 % 1019,2 hPa 0,0 l/m 0 min 0 min 0 W/m 9,7 km/h (2 Bft) 97,87 %
07.11.2021 21:44 7,6 C 6,7 C 4,4 C 91 % 1019,3 hPa 0,0 l/m 0 min 0 min 0 W/m 12,9 km/h (3 Bft) 97,83 %
07.11.2021 21:46 7,6 C 6,7 C 4,4 C 91 % 1019,3 hPa 0,0 l/m 0 min 0 min 0 W/m 6,4 km/h (2 Bft) 97,87 %
07.11.2021 21:48 7,6 C 6,7 C 4,4 C 91 % 1019,3 hPa 0,0 l/m 0 min 0 min 0 W/m 12,9 km/h (3 Bft) 97,87 %
07.11.2021 21:50 7,6 C 6,7 C 4,4 C 91 % 1019,3 hPa 0,0 l/m 0 min 0 min 0 W/m 9,7 km/h (2 Bft) 97,87 %
07.11.2021 21:52 7,6 C 6,7 C 4,4 C 91 % 1019,3 hPa 0,0 l/m 0 min 0 min 0 W/m 6,4 km/h (2 Bft) 95,74 %
07.11.2021 21:54 7,5 C 6,7 C 4,4 C 91 % 1019,3 hPa 0,0 l/m 0 min 0 min 0 W/m 3,2 km/h (1 Bft) 95,74 %
07.11.2021 21:56 7,5 C 6,7 C 4,4 C 91 % 1019,3 hPa 0,0 l/m 0 min 0 min 0 W/m 3,2 km/h (1 Bft) 100,00 %
07.11.2021 21:58 7,5 C 6,7 C 4,4 C 92 % 1019,4 hPa 0,0 l/m 0 min 0 min 0 W/m 6,4 km/h (2 Bft) 100,00 %
07.11.2021 22:00 7,5 C 6,7 C 4,4 C 92 % 1019,3 hPa 0,0 l/m 0 min 0 min 0 W/m 6,4 km/h (2 Bft) 100,00 %
07.11.2021 22:02 7,5 C 6,7 C 4,4 C 92 % 1019,3 hPa 0,0 l/m 0 min 0 min 0 W/m 6,4 km/h (2 Bft) 97,87 %
07.11.2021 22:04 7,5 C 6,7 C 4,4 C 92 % 1019,4 hPa 0,0 l/m 0 min 0 min 0 W/m 9,7 km/h (2 Bft) 97,87 %
07.11.2021 22:06 7,5 C 6,7 C 4,4 C 92 % 1019,3 hPa 0,0 l/m 0 min 0 min 0 W/m 3,2 km/h (1 Bft) 97,87 %
07.11.2021 22:08 7,5 C 6,7 C 4,4 C 92 % 1019,4 hPa 0,0 l/m 0 min 0 min 0 W/m 3,2 km/h (1 Bft) 97,83 %
07.11.2021 22:10 7,5 C 6,7 C 4,4 C 92 % 1019,4 hPa 0,0 l/m 0 min 0 min 0 W/m 6,4 km/h (2 Bft) 97,87 %
07.11.2021 22:12 7,5 C 6,7 C 4,4 C 92 % 1019,4 hPa 0,0 l/m 0 min 0 min 0 W/m 6,4 km/h (2 Bft) 97,87 %
07.11.2021 22:14 7,5 C 6,7 C 4,4 C 92 % 1019,5 hPa 0,0 l/m 0 min 0 min 0 W/m 6,4 km/h (2 Bft) 97,87 %
07.11.2021 22:16 7,5 C 6,7 C 4,4 C 92 % 1019,4 hPa 0,0 l/m 0 min 0 min 0 W/m 6,4 km/h (2 Bft) 95,74 %
07.11.2021 22:18 7,5 C 6,7 C 4,4 C 92 % 1019,5 hPa 0,0 l/m 0 min 0 min 0 W/m 3,2 km/h (1 Bft) 97,87 %
07.11.2021 22:20 7,4 C 6,7 C 4,4 C 92 % 1019,5 hPa 0,0 l/m 0 min 0 min 0 W/m 12,9 km/h (3 Bft) 97,83 %
07.11.2021 22:22 7,4 C 6,7 C 4,4 C 92 % 1019,5 hPa 0,0 l/m 0 min 0 min 0 W/m 6,4 km/h (2 Bft) 97,87 %
07.11.2021 22:24 7,4 C 6,7 C 4,4 C 92 % 1019,4 hPa 0,0 l/m 0 min 0 min 0 W/m 12,9 km/h (3 Bft) 97,87 %
07.11.2021 22:26 7,4 C 6,7 C 4,4 C 92 % 1019,4 hPa 0,0 l/m 0 min 0 min 0 W/m 12,9 km/h (3 Bft) 95,74 %
07.11.2021 22:28 7,4 C 6,7 C 4,4 C 92 % 1019,4 hPa 0,0 l/m 0 min 0 min 0 W/m 12,9 km/h (3 Bft) 97,87 %
07.11.2021 22:30 7,4 C 6,7 C 4,4 C 93 % 1019,4 hPa 0,0 l/m 0 min 0 min 0 W/m 12,9 km/h (3 Bft) 97,87 %
07.11.2021 22:32 7,4 C 6,7 C 4,4 C 93 % 1019,5 hPa 0,0 l/m 0 min 0 min 0 W/m 9,7 km/h (2 Bft) 97,83 %
07.11.2021 22:34 7,4 C 6,7 C 4,4 C 93 % 1019,5 hPa 0,0 l/m 0 min 0 min 0 W/m 6,4 km/h (2 Bft) 95,74 %
07.11.2021 22:36 7,4 C 6,7 C 4,4 C 93 % 1019,4 hPa 0,0 l/m 0 min 0 min 0 W/m 6,4 km/h (2 Bft) 97,87 %
07.11.2021 22:38 7,3 C 6,7 C 4,4 C 93 % 1019,5 hPa 0,0 l/m 0 min 0 min 0 W/m 3,2 km/h (1 Bft) 97,87 %
07.11.2021 22:40 7,3 C 6,7 C 4,4 C 93 % 1019,5 hPa 0,0 l/m 0 min 0 min 0 W/m 6,4 km/h (2 Bft) 100,00 %
07.11.2021 22:42 7,3 C 6,7 C 4,4 C 93 % 1019,5 hPa 0,0 l/m 0 min 0 min 0 W/m 3,2 km/h (1 Bft) 100,00 %
07.11.2021 22:44 7,3 C 6,7 C 4,4 C 93 % 1019,5 hPa 0,0 l/m 0 min 0 min 0 W/m 6,4 km/h (2 Bft) 100,00 %
07.11.2021 22:46 7,3 C 6,7 C 4,4 C 93 % 1019,5 hPa 0,0 l/m 0 min 0 min 0 W/m 3,2 km/h (1 Bft) 100,00 %
07.11.2021 22:48 7,3 C 6,1 C 4,4 C 93 % 1019,5 hPa 0,0 l/m 0 min 0 min 0 W/m 6,4 km/h (2 Bft) 100,00 %
07.11.2021 22:50 7,2 C 6,1 C 4,4 C 93 % 1019,6 hPa 0,0 l/m 0 min 0 min 0 W/m 6,4 km/h (2 Bft) 100,00 %
07.11.2021 22:52 7,2 C 6,1 C 4,4 C 93 % 1019,6 hPa 0,0 l/m 0 min 0 min 0 W/m 6,4 km/h (2 Bft) 100,00 %
07.11.2021 22:54 7,1 C 6,1 C 3,9 C 93 % 1019,6 hPa 0,0 l/m 0 min 0 min 0 W/m 6,4 km/h (2 Bft) 100,00 %
07.11.2021 22:56 7,1 C 6,1 C 3,9 C 93 % 1019,6 hPa 0,0 l/m 0 min 0 min 0 W/m 6,4 km/h (2 Bft) 100,00 %
07.11.2021 22:58 7,1 C 6,1 C 3,9 C 93 % 1019,6 hPa 0,0 l/m 0 min 0 min 0 W/m 6,4 km/h (2 Bft) 100,00 %
07.11.2021 23:00 7,1 C 6,1 C 3,9 C 93 % 1019,6 hPa 0,0 l/m 0 min 0 min 0 W/m 6,4 km/h (2 Bft) 100,00 %
07.11.2021 23:02 7,0 C 6,1 C 3,9 C 93 % 1019,7 hPa 0,0 l/m 0 min 0 min 0 W/m 6,4 km/h (2 Bft) 95,74 %
07.11.2021 23:04 7,0 C 6,1 C 3,9 C 93 % 1019,7 hPa 0,0 l/m 0 min 0 min 0 W/m 6,4 km/h (2 Bft) 100,00 %
07.11.2021 23:06 7,0 C 6,1 C 3,9 C 93 % 1019,7 hPa 0,0 l/m 0 min 0 min 0 W/m 9,7 km/h (2 Bft) 100,00 %
07.11.2021 23:08 7,0 C 6,1 C 3,9 C 93 % 1019,7 hPa 0,0 l/m 0 min 0 min 0 W/m 9,7 km/h (2 Bft) 97,87 %
07.11.2021 23:10 7,0 C 6,1 C 3,9 C 93 % 1019,7 hPa 0,0 l/m 0 min 0 min 0 W/m 6,4 km/h (2 Bft) 100,00 %
07.11.2021 23:12 7,0 C 6,1 C 3,9 C 93 % 1019,7 hPa 0,0 l/m 0 min 0 min 0 W/m 3,2 km/h (1 Bft) 97,87 %
07.11.2021 23:14 7,0 C 6,1 C 3,9 C 93 % 1019,7 hPa 0,0 l/m 0 min 0 min 0 W/m 3,2 km/h (1 Bft) 97,87 %
07.11.2021 23:16 6,9 C 6,1 C 3,9 C 93 % 1019,8 hPa 0,0 l/m 0 min 0 min 0 W/m 9,7 km/h (2 Bft) 97,87 %
07.11.2021 23:18 6,9 C 6,1 C 3,9 C 93 % 1019,7 hPa 0,0 l/m 0 min 0 min 0 W/m 6,4 km/h (2 Bft) 96,00 %
07.11.2021 23:20 6,9 C 6,1 C 3,9 C 93 % 1019,7 hPa 0,0 l/m 0 min 0 min 0 W/m 9,7 km/h (2 Bft) 97,87 %
07.11.2021 23:22 6,9 C 6,1 C 3,9 C 93 % 1019,7 hPa 0,0 l/m 0 min 0 min 0 W/m 6,4 km/h (2 Bft) 97,87 %
07.11.2021 23:24 6,9 C 6,1 C 3,9 C 93 % 1019,8 hPa 0,0 l/m 0 min 0 min 0 W/m 12,9 km/h (3 Bft) 97,87 %
07.11.2021 23:26 6,9 C 6,1 C 3,9 C 93 % 1019,8 hPa 0,0 l/m 0 min 0 min 0 W/m 6,4 km/h (2 Bft) 97,87 %
07.11.2021 23:28 6,9 C 6,1 C 3,9 C 93 % 1019,8 hPa 0,0 l/m 0 min 0 min 0 W/m 6,4 km/h (2 Bft) 95,74 %
07.11.2021 23:30 6,8 C 6,1 C 3,9 C 93 % 1019,8 hPa 0,0 l/m 0 min 0 min 0 W/m 3,2 km/h (1 Bft) 93,48 %
07.11.2021 23:32 6,8 C 6,1 C 3,9 C 93 % 1019,9 hPa 0,0 l/m 0 min 0 min 0 W/m 6,4 km/h (2 Bft) 91,49 %
07.11.2021 23:34 6,8 C 6,1 C 3,9 C 93 % 1019,8 hPa 0,0 l/m 0 min 0 min 0 W/m 6,4 km/h (2 Bft) 95,74 %
07.11.2021 23:36 6,8 C 5,6 C 3,9 C 93 % 1019,9 hPa 0,0 l/m 0 min 0 min 0 W/m 12,9 km/h (3 Bft) 95,74 %
07.11.2021 23:38 6,7 C 5,6 C 3,9 C 93 % 1019,9 hPa 0,0 l/m 0 min 0 min 0 W/m 3,2 km/h (1 Bft) 95,74 %
07.11.2021 23:40 6,7 C 5,6 C 3,9 C 93 % 1020,0 hPa 0,0 l/m 0 min 0 min 0 W/m 6,4 km/h (2 Bft) 97,83 %
07.11.2021 23:42 6,7 C 5,6 C 3,9 C 93 % 1020,0 hPa 0,0 l/m 0 min 0 min 0 W/m 6,4 km/h (2 Bft) 97,87 %
07.11.2021 23:44 6,6 C 5,6 C 3,9 C 93 % 1020,0 hPa 0,0 l/m 0 min 0 min 0 W/m 6,4 km/h (2 Bft) 97,87 %
07.11.2021 23:46 6,6 C 5,6 C 3,9 C 93 % 1020,0 hPa 0,0 l/m 0 min 0 min 0 W/m 6,4 km/h (2 Bft) 97,87 %
07.11.2021 23:48 6,6 C 5,6 C 3,9 C 93 % 1020,0 hPa 0,0 l/m 0 min 0 min 0 W/m 6,4 km/h (2 Bft) 97,87 %
07.11.2021 23:50 6,6 C 5,6 C 3,9 C 93 % 1020,0 hPa 0,0 l/m 0 min 0 min 0 W/m 6,4 km/h (2 Bft) 95,74 %
07.11.2021 23:52 6,6 C 5,6 C 3,9 C 93 % 1020,0 hPa 0,0 l/m 0 min 0 min 0 W/m 3,2 km/h (1 Bft) 97,83 %
07.11.2021 23:54 6,5 C 5,6 C 3,9 C 93 % 1020,0 hPa 0,0 l/m 0 min 0 min 0 W/m 6,4 km/h (2 Bft) 97,87 %
07.11.2021 23:56 6,5 C 5,6 C 3,9 C 93 % 1020,0 hPa 0,0 l/m 0 min 0 min 0 W/m 6,4 km/h (2 Bft) 97,87 %
07.11.2021 23:58 6,5 C 5,6 C 3,9 C 93 % 1020,1 hPa 0,0 l/m 0 min 0 min 0 W/m 3,2 km/h (1 Bft) 97,87 %
_ Min-Zeit 23:54 23:36 22:54 14:22 06:34 - - - - 19:24 16:20
Minimum _ 6,5 C 5,6 C 3,9 C 73 % 1015,7 hPa - - - - 0,0 km/h (0 Bft) 41,18 %
_ Max-Zeit 14:20 14:12 11:40 04:36 00:00 07:34 10:30 00:08 13:30 00:32 00:08
Maximum _ 12,5 C 15,0 C 9,4 C 96 % 1020,6 hPa 0,2 l/m 2 min 4 min 451 W/m 57,9 km/h
O-SO (7 Bft)
100,00 %
Durchschnitt _ 9,6 C 9,2 C 6,6 C 88 % 1017,5 hPa #0,6 l/m #2:02 h #3:06 h 119 W/m 17,0 km/h (3 Bft) 97,32 %
© 2021 W. Hausmann